TAP231P LPPT-KIAD

Flight info

Callsign TAP231P
Flight time 9h 2m
Altitude 34000
Route ELNUB DCT DETOX/M077F340 DCT 43N020W 45N030W/M077F360 47N040W 48N050W DCT NICSO/N0446F360 DCT TAGRA DCT EBONY/N0433F380 DCT KAYCC DCT KYLOH DCT BAF HYPER9
Aircraft A21N/M-SADE1E2E3FGHIJ1J3J7M3P2RWXYZ/LB1D1

Departure

Time 2026-05-05 11:53
Airport Lisbon Humberto Delgado Airport (LPPT)

Arrival

Time 2026-05-05 20:56
Airport Washington Dulles International Airport (KIAD)
Time Latitude Longitude Altitude Speed Heading
2026-05-05 11:02 38.77689 -9.13105 352 ft 0 kts 187°
2026-05-05 11:16 38.77690 -9.13105 343 ft 0 kts 187°
2026-05-05 11:38 38.77691 -9.13105 343 ft 0 kts 187°
2026-05-05 11:43 38.77693 -9.13105 343 ft 3 kts 187°
2026-05-05 11:43 38.77714 -9.13102 352 ft 3 kts 187°
2026-05-05 11:43 38.77740 -9.13100 350 ft 3 kts 173°
2026-05-05 11:44 38.77761 -9.13100 351 ft 4 kts 213°
2026-05-05 11:44 38.77773 -9.13078 348 ft 3 kts 258°
2026-05-05 11:44 38.77777 -9.13051 335 ft 0 kts 258°
2026-05-05 11:45 38.77777 -9.13050 334 ft 0 kts 258°
2026-05-05 11:46 38.77776 -9.13058 335 ft 2 kts 258°
2026-05-05 11:46 38.77771 -9.13086 349 ft 4 kts 258°
2026-05-05 11:47 38.77764 -9.13132 351 ft 6 kts 259°
2026-05-05 11:47 38.77752 -9.13193 351 ft 8 kts 257°
2026-05-05 11:47 38.77739 -9.13274 343 ft 10 kts 257°
2026-05-05 11:47 38.77702 -9.13355 346 ft 12 kts 218°
2026-05-05 11:48 38.77525 -9.13459 350 ft 15 kts 207°
2026-05-05 11:48 38.77433 -9.13528 353 ft 16 kts 190°
2026-05-05 11:48 38.77323 -9.13516 352 ft 16 kts 189°
2026-05-05 11:49 38.77275 -9.13640 358 ft 17 kts 253°
2026-05-05 11:49 38.77248 -9.13793 361 ft 18 kts 258°
2026-05-05 11:49 38.77153 -9.13887 362 ft 18 kts 201°
2026-05-05 11:49 38.77038 -9.13948 356 ft 18 kts 202°
2026-05-05 11:50 38.76920 -9.14010 355 ft 19 kts 203°
2026-05-05 11:50 38.76800 -9.14075 349 ft 19 kts 203°
2026-05-05 11:50 38.76690 -9.14134 351 ft 16 kts 202°
2026-05-05 11:50 38.76584 -9.14190 351 ft 9 kts 202°
2026-05-05 11:51 38.76554 -9.14206 351 ft 5 kts 202°
2026-05-05 11:51 38.76530 -9.14241 348 ft 6 kts 259°
2026-05-05 11:51 38.76539 -9.14302 348 ft 8 kts 289°
2026-05-05 11:51 38.76562 -9.14377 337 ft 10 kts 293°
2026-05-05 11:52 38.76620 -9.14398 345 ft 11 kts 23°
2026-05-05 11:52 38.76731 -9.14340 352 ft 39 kts 21°
2026-05-05 11:52 38.77192 -9.14111 360 ft 102 kts 24°
2026-05-05 11:52 38.78027 -9.13653 373 ft 155 kts 23°
2026-05-05 11:53 38.79114 -9.13034 678 ft 170 kts 20°
2026-05-05 11:53 38.80148 -9.12418 1380 ft 172 kts 21°
2026-05-05 11:53 38.81251 -9.11644 1765 ft 189 kts 26°
2026-05-05 11:53 38.82438 -9.10768 2260 ft 205 kts 26°
2026-05-05 11:54 38.83738 -9.09813 2681 ft 228 kts 27°
2026-05-05 11:54 38.85117 -9.08799 3058 ft 249 kts 27°
2026-05-05 11:54 38.86667 -9.07663 3766 ft 254 kts 27°
2026-05-05 11:54 38.88209 -9.06536 4564 ft 258 kts 26°
2026-05-05 11:55 38.89882 -9.05757 5374 ft 255 kts
2026-05-05 11:55 38.91645 -9.05867 6185 ft 254 kts 350°
2026-05-05 11:55 38.93389 -9.06287 6964 ft 256 kts 349°
2026-05-05 11:55 38.95142 -9.06726 7737 ft 258 kts 348°
2026-05-05 11:56 38.96927 -9.07156 8469 ft 263 kts 349°
2026-05-05 11:56 38.98733 -9.07647 9203 ft 267 kts 342°
2026-05-05 11:56 39.00394 -9.08714 9979 ft 270 kts 322°
2026-05-05 11:56 39.01662 -9.10532 10469 ft 284 kts 302°
2026-05-05 11:57 39.02315 -9.13021 10762 ft 308 kts 280°
2026-05-05 11:57 39.02448 -9.15804 11254 ft 320 kts 275°
2026-05-05 11:57 39.02514 -9.18725 11976 ft 323 kts 275°
2026-05-05 11:57 39.02601 -9.21622 12739 ft 325 kts 276°
2026-05-05 11:58 39.02705 -9.24498 13484 ft 327 kts 276°
2026-05-05 11:58 39.02824 -9.27430 14209 ft 330 kts 276°
2026-05-05 11:58 39.02946 -9.30386 14841 ft 332 kts 276°
2026-05-05 11:58 39.03074 -9.33365 15489 ft 335 kts 276°
2026-05-05 11:59 39.03205 -9.36365 16125 ft 337 kts 276°
2026-05-05 11:59 39.03333 -9.39326 16733 ft 340 kts 276°
2026-05-05 11:59 39.03467 -9.42380 17351 ft 344 kts 276°
2026-05-05 11:59 39.03600 -9.45459 17955 ft 346 kts 276°
2026-05-05 12:00 39.03732 -9.48562 18545 ft 349 kts 276°
2026-05-05 12:00 39.03866 -9.51691 19062 ft 351 kts 276°
2026-05-05 12:00 39.04000 -9.54843 19589 ft 354 kts 275°
2026-05-05 12:00 39.04132 -9.58006 20114 ft 356 kts 275°
2026-05-05 12:01 39.04264 -9.61184 20622 ft 358 kts 275°
2026-05-05 12:01 39.04399 -9.64382 21131 ft 360 kts 275°
2026-05-05 12:01 39.04533 -9.67609 21633 ft 362 kts 275°
2026-05-05 12:01 39.04666 -9.70855 22141 ft 364 kts 275°
2026-05-05 12:02 39.04798 -9.74112 22641 ft 367 kts 275°
2026-05-05 12:02 39.04930 -9.77407 23133 ft 369 kts 275°
2026-05-05 12:02 39.05062 -9.80707 23611 ft 371 kts 275°
2026-05-05 12:02 39.05194 -9.84036 24029 ft 373 kts 275°
2026-05-05 12:03 39.05326 -9.87334 24431 ft 375 kts 274°
2026-05-05 12:03 39.05458 -9.90693 24840 ft 377 kts 274°
2026-05-05 12:03 39.05595 -9.94108 25248 ft 378 kts 274°
2026-05-05 12:03 39.05726 -9.97451 25634 ft 380 kts 274°
2026-05-05 12:04 39.05857 -10.00844 26020 ft 382 kts 274°
2026-05-05 12:04 39.05988 -10.04266 26382 ft 384 kts 274°
2026-05-05 12:04 39.06117 -10.07704 26750 ft 385 kts 273°
2026-05-05 12:04 39.06245 -10.11155 27119 ft 387 kts 273°
2026-05-05 12:05 39.06374 -10.14616 27461 ft 388 kts 273°
2026-05-05 12:05 39.06503 -10.18094 27801 ft 390 kts 273°
2026-05-05 12:05 39.06632 -10.21589 28133 ft 392 kts 273°
2026-05-05 12:05 39.06757 -10.25090 28453 ft 393 kts 273°
2026-05-05 12:06 39.06884 -10.28611 28779 ft 395 kts 272°
2026-05-05 12:06 39.07013 -10.32151 29088 ft 397 kts 272°
2026-05-05 12:06 39.07141 -10.35708 29393 ft 398 kts 272°
2026-05-05 12:06 39.07266 -10.39274 29697 ft 400 kts 272°
2026-05-05 12:07 39.07386 -10.42853 29983 ft 401 kts 272°
2026-05-05 12:07 39.07506 -10.46441 30281 ft 403 kts 272°
2026-05-05 12:07 39.07625 -10.50039 30535 ft 404 kts 272°
2026-05-05 12:07 39.07751 -10.53662 30788 ft 405 kts 272°
2026-05-05 12:08 39.07875 -10.57285 31035 ft 406 kts 272°
2026-05-05 12:08 39.07998 -10.60878 31279 ft 407 kts 272°
2026-05-05 12:08 39.08245 -10.64514 31516 ft 409 kts 278°
2026-05-05 12:08 39.08958 -10.68061 31719 ft 412 kts 288°
2026-05-05 12:09 39.09740 -10.70339 31887 ft 414 kts 295°
2026-05-05 12:09 39.11690 -10.74571 32274 ft 414 kts 299°
2026-05-05 12:09 39.13213 -10.77719 32588 ft 413 kts 299°
2026-05-05 12:09 39.14720 -10.80858 32848 ft 412 kts 298°
2026-05-05 12:10 39.16215 -10.84005 33110 ft 412 kts 298°
2026-05-05 12:10 39.17702 -10.87151 33364 ft 411 kts 298°
2026-05-05 12:10 39.18706 -10.89282 33524 ft 411 kts 298°
2026-05-05 12:10 39.20187 -10.92433 33753 ft 410 kts 298°
2026-05-05 12:11 39.21660 -10.95567 33979 ft 410 kts 298°
2026-05-05 12:11 39.23115 -10.98666 34181 ft 410 kts 298°
2026-05-05 12:11 39.26070 -11.04976 34213 ft 411 kts 298°
2026-05-05 12:12 39.29014 -11.11306 34190 ft 411 kts 298°
2026-05-05 12:12 39.31966 -11.17638 34184 ft 412 kts 298°
2026-05-05 12:13 39.34940 -11.23985 34183 ft 413 kts 298°
2026-05-05 12:13 39.37908 -11.30355 34180 ft 414 kts 298°
2026-05-05 12:14 39.40873 -11.36750 34186 ft 415 kts 298°
2026-05-05 12:14 39.43821 -11.43115 34190 ft 415 kts 298°
2026-05-05 12:15 39.46811 -11.49511 34191 ft 416 kts 298°
2026-05-05 12:15 39.49779 -11.55932 34191 ft 416 kts 298°
2026-05-05 12:16 39.52739 -11.62349 34189 ft 416 kts 298°
2026-05-05 12:16 39.55697 -11.68782 34195 ft 416 kts 298°
2026-05-05 12:17 39.58654 -11.75229 34195 ft 416 kts 298°
2026-05-05 12:17 39.61612 -11.81687 34198 ft 416 kts 298°
2026-05-05 12:18 39.64564 -11.88142 34199 ft 416 kts 298°
2026-05-05 12:18 39.67519 -11.94612 34200 ft 417 kts 298°
2026-05-05 12:19 39.70469 -12.01092 34202 ft 417 kts 298°
2026-05-05 12:19 39.73389 -12.07531 34208 ft 417 kts 298°
2026-05-05 12:20 39.76331 -12.14022 34206 ft 417 kts 298°
2026-05-05 12:20 39.79273 -12.20516 34208 ft 417 kts 298°
2026-05-05 12:21 39.82196 -12.26998 34202 ft 417 kts 298°
2026-05-05 12:21 39.85119 -12.33515 34211 ft 417 kts 298°
2026-05-05 12:22 39.88046 -12.40031 34209 ft 417 kts 298°
2026-05-05 12:22 39.90965 -12.46550 34213 ft 417 kts 298°
2026-05-05 12:23 39.93891 -12.53070 34213 ft 417 kts 298°
2026-05-05 12:23 39.96791 -12.59558 34214 ft 417 kts 298°
2026-05-05 12:24 39.99696 -12.66090 34215 ft 417 kts 298°
2026-05-05 12:24 40.02602 -12.72633 34219 ft 417 kts 298°
2026-05-05 12:25 40.05511 -12.79169 34220 ft 417 kts 298°
2026-05-05 12:25 40.08421 -12.85719 34220 ft 417 kts 298°
2026-05-05 12:26 40.11322 -12.92278 34221 ft 417 kts 298°
2026-05-05 12:26 40.14217 -12.98834 34225 ft 417 kts 298°
2026-05-05 12:27 40.17107 -13.05403 34225 ft 417 kts 298°
2026-05-05 12:27 40.19992 -13.11966 34227 ft 417 kts 298°
2026-05-05 12:28 40.22879 -13.18549 34227 ft 417 kts 298°
2026-05-05 12:28 40.25750 -13.25130 34230 ft 417 kts 298°
2026-05-05 12:29 40.28607 -13.31672 34236 ft 417 kts 298°
2026-05-05 12:29 40.31478 -13.38263 34234 ft 417 kts 298°
2026-05-05 12:30 40.34345 -13.44858 34233 ft 416 kts 298°
2026-05-05 12:30 40.37207 -13.51459 34235 ft 416 kts 298°
2026-05-05 12:31 40.40070 -13.58075 34238 ft 417 kts 297°
2026-05-05 12:31 40.42922 -13.64693 34243 ft 417 kts 297°
2026-05-05 12:32 40.45781 -13.71329 34243 ft 417 kts 297°
2026-05-05 12:32 40.48633 -13.77962 34244 ft 417 kts 297°
2026-05-05 12:33 40.51457 -13.84564 34244 ft 417 kts 297°
2026-05-05 12:33 40.54304 -13.91200 34246 ft 417 kts 297°
2026-05-05 12:34 40.57143 -13.97834 34243 ft 417 kts 297°
2026-05-05 12:34 40.59978 -14.04488 34251 ft 417 kts 297°
2026-05-05 12:35 40.62810 -14.11153 34253 ft 417 kts 297°
2026-05-05 12:35 40.65637 -14.17828 34257 ft 417 kts 297°
2026-05-05 12:36 40.68454 -14.24500 34254 ft 417 kts 297°
2026-05-05 12:36 40.71286 -14.31185 34256 ft 418 kts 297°
2026-05-05 12:37 40.74105 -14.37885 34256 ft 418 kts 297°
2026-05-05 12:37 40.76922 -14.44583 34254 ft 418 kts 297°
2026-05-05 12:38 40.79723 -14.51260 34263 ft 419 kts 297°
2026-05-05 12:38 40.82542 -14.57988 34261 ft 419 kts 297°
2026-05-05 12:39 40.85359 -14.64728 34259 ft 419 kts 297°
2026-05-05 12:39 40.88175 -14.71488 34260 ft 420 kts 297°
2026-05-05 12:40 40.90979 -14.78249 34259 ft 420 kts 297°
2026-05-05 12:40 40.93769 -14.85034 34265 ft 420 kts 297°
2026-05-05 12:41 40.96576 -14.91810 34267 ft 420 kts 297°
2026-05-05 12:41 40.99400 -14.98590 34268 ft 421 kts 297°
2026-05-05 12:42 41.02303 -15.05332 34272 ft 422 kts 298°
2026-05-05 12:42 41.05207 -15.12034 34269 ft 423 kts 298°
2026-05-05 12:43 41.08139 -15.18799 34277 ft 423 kts 298°
2026-05-05 12:43 41.11059 -15.25573 34274 ft 423 kts 298°
2026-05-05 12:44 41.13956 -15.32366 34280 ft 423 kts 299°
2026-05-05 12:44 41.16886 -15.39143 34275 ft 424 kts 299°
2026-05-05 12:45 41.19810 -15.45934 34277 ft 424 kts 299°
2026-05-05 12:45 41.22717 -15.52737 34283 ft 424 kts 298°
2026-05-05 12:46 41.25621 -15.59555 34285 ft 424 kts 299°
2026-05-05 12:46 41.28512 -15.66332 34288 ft 424 kts 299°
2026-05-05 12:47 41.31414 -15.73163 34284 ft 424 kts 299°
2026-05-05 12:47 41.34312 -15.80015 34289 ft 425 kts 298°
2026-05-05 12:48 41.37205 -15.86880 34290 ft 425 kts 299°
2026-05-05 12:48 41.40100 -15.93736 34298 ft 425 kts 299°
2026-05-05 12:49 41.42995 -16.00620 34299 ft 426 kts 299°
2026-05-05 12:49 41.45889 -16.07500 34293 ft 426 kts 299°
2026-05-05 12:50 41.48770 -16.14404 34296 ft 426 kts 299°
2026-05-05 12:50 41.51664 -16.21310 34303 ft 427 kts 299°
2026-05-05 12:51 41.54563 -16.28229 34299 ft 427 kts 300°
2026-05-05 12:51 41.57457 -16.35159 34298 ft 427 kts 300°
2026-05-05 12:52 41.60322 -16.42051 34301 ft 428 kts 300°
2026-05-05 12:52 41.63205 -16.49009 34304 ft 428 kts 300°
2026-05-05 12:53 41.66080 -16.55973 34305 ft 428 kts 300°
2026-05-05 12:53 41.68956 -16.62944 34306 ft 428 kts 300°
2026-05-05 12:54 41.73260 -16.73413 34313 ft 428 kts 300°
2026-05-05 12:55 41.76121 -16.80407 34307 ft 428 kts 300°
2026-05-05 12:55 41.78982 -16.87404 34309 ft 428 kts 300°
2026-05-05 12:56 41.81831 -16.94388 34311 ft 428 kts 300°
2026-05-05 12:56 41.84682 -17.01387 34314 ft 428 kts 300°
2026-05-05 12:57 41.87505 -17.08344 34319 ft 427 kts 300°
2026-05-05 12:57 41.90339 -17.15356 34316 ft 427 kts 300°
2026-05-05 12:58 41.93159 -17.22369 34315 ft 427 kts 300°
2026-05-05 12:58 41.95977 -17.29375 34322 ft 426 kts 300°
2026-05-05 12:59 41.98799 -17.36391 34323 ft 427 kts 300°
2026-05-05 12:59 42.01608 -17.43414 34328 ft 427 kts 300°
2026-05-05 13:00 42.05845 -17.53964 34333 ft 427 kts 300°
2026-05-05 13:01 42.11451 -17.68055 34331 ft 427 kts 300°
2026-05-05 13:01 42.14257 -17.75105 34331 ft 427 kts 300°
2026-05-05 13:02 42.17042 -17.82123 34336 ft 427 kts 300°
2026-05-05 13:02 42.19834 -17.89194 34335 ft 427 kts 300°
2026-05-05 13:03 42.22620 -17.96270 34341 ft 427 kts 300°
2026-05-05 13:03 42.25395 -18.03347 34344 ft 427 kts 300°
2026-05-05 13:04 42.28170 -18.10424 34342 ft 426 kts 300°
2026-05-05 13:04 42.30943 -18.17501 34343 ft 426 kts 300°
2026-05-05 13:05 42.33697 -18.24598 34344 ft 426 kts 300°
2026-05-05 13:05 42.36445 -18.31689 34347 ft 425 kts 300°
2026-05-05 13:06 42.39200 -18.38755 34350 ft 424 kts 300°
2026-05-05 13:06 42.41926 -18.45767 34348 ft 424 kts 300°
2026-05-05 13:07 42.44652 -18.52836 34348 ft 423 kts 299°
2026-05-05 13:07 42.47372 -18.59897 34354 ft 423 kts 299°
2026-05-05 13:08 42.50082 -18.66955 34355 ft 422 kts 299°
2026-05-05 13:08 42.52788 -18.74004 34352 ft 421 kts 299°
2026-05-05 13:09 42.55484 -18.81052 34360 ft 421 kts 299°
2026-05-05 13:09 42.58171 -18.88106 34360 ft 420 kts 299°
2026-05-05 13:10 42.60401 -18.93958 34364 ft 420 kts 299°
2026-05-05 13:10 42.63512 -19.02146 34365 ft 420 kts 299°
2026-05-05 13:11 42.66183 -19.09197 34364 ft 419 kts 299°
2026-05-05 13:11 42.68402 -19.15109 34364 ft 419 kts 298°
2026-05-05 13:12 42.71032 -19.22106 34367 ft 418 kts 298°
2026-05-05 13:12 42.73684 -19.29141 34372 ft 418 kts 299°
2026-05-05 13:13 42.76328 -19.36163 34370 ft 417 kts 299°
2026-05-05 13:13 42.78959 -19.43178 34375 ft 415 kts 299°
2026-05-05 13:14 42.81577 -19.50187 34377 ft 415 kts 299°
2026-05-05 13:14 42.84187 -19.57182 34378 ft 414 kts 299°
2026-05-05 13:15 42.86785 -19.64175 34371 ft 413 kts 299°
2026-05-05 13:15 42.89370 -19.71157 34376 ft 412 kts 299°
2026-05-05 13:16 42.91941 -19.78126 34387 ft 411 kts 299°
2026-05-05 13:16 42.94505 -19.85088 34379 ft 411 kts 299°
2026-05-05 13:17 42.97054 -19.92004 34384 ft 410 kts 299°
2026-05-05 13:17 42.99594 -19.98960 34383 ft 409 kts 298°
2026-05-05 13:18 43.01584 -20.06272 34386 ft 411 kts 292°
2026-05-05 13:18 43.03418 -20.13652 34381 ft 410 kts 293°
2026-05-05 13:19 43.05253 -20.21017 34389 ft 408 kts 293°
2026-05-05 13:19 43.07079 -20.28350 34395 ft 407 kts 294°
2026-05-05 13:20 43.08895 -20.35672 34390 ft 406 kts 294°
2026-05-05 13:20 43.10702 -20.42981 34392 ft 405 kts 294°
2026-05-05 13:21 43.12496 -20.50256 34392 ft 403 kts 294°
2026-05-05 13:21 43.14286 -20.57529 34391 ft 402 kts 295°
2026-05-05 13:22 43.16048 -20.64730 34395 ft 401 kts 295°
2026-05-05 13:22 43.17815 -20.71966 34391 ft 400 kts 295°
2026-05-05 13:23 43.19572 -20.79185 34393 ft 399 kts 295°
2026-05-05 13:23 43.21324 -20.86395 34394 ft 398 kts 295°
2026-05-05 13:24 43.23057 -20.93600 34405 ft 398 kts 295°
2026-05-05 13:24 43.24780 -21.00801 34401 ft 397 kts 296°
2026-05-05 13:25 43.26510 -21.07983 34400 ft 396 kts 296°
2026-05-05 13:25 43.28225 -21.15136 34398 ft 395 kts 296°
2026-05-05 13:26 43.29942 -21.22279 34401 ft 394 kts 296°
2026-05-05 13:26 43.31636 -21.29380 34398 ft 394 kts 296°
2026-05-05 13:27 43.33324 -21.36524 34396 ft 393 kts 296°
2026-05-05 13:27 43.35010 -21.43672 34401 ft 393 kts 296°
2026-05-05 13:28 43.36687 -21.50818 34403 ft 393 kts 296°
2026-05-05 13:28 43.38368 -21.57964 34408 ft 393 kts 296°
2026-05-05 13:29 43.40057 -21.65116 34403 ft 393 kts 296°
2026-05-05 13:29 43.41731 -21.72270 34407 ft 393 kts 296°
2026-05-05 13:30 43.43395 -21.79435 34409 ft 393 kts 296°
2026-05-05 13:30 43.45050 -21.86607 34405 ft 393 kts 296°
2026-05-05 13:31 43.46711 -21.93762 34407 ft 393 kts 296°
2026-05-05 13:31 43.48362 -22.00886 34415 ft 393 kts 295°
2026-05-05 13:32 43.50006 -22.08069 34406 ft 394 kts 295°
2026-05-05 13:32 43.51650 -22.15269 34410 ft 393 kts 295°
2026-05-05 13:33 43.53296 -22.22453 34422 ft 394 kts 295°
2026-05-05 13:33 43.54926 -22.29653 34418 ft 394 kts 295°
2026-05-05 13:34 43.56557 -22.36862 34418 ft 394 kts 295°
2026-05-05 13:34 43.58189 -22.44089 34417 ft 394 kts 295°
2026-05-05 13:35 43.59821 -22.51309 34412 ft 395 kts 295°
2026-05-05 13:35 43.61445 -22.58548 34415 ft 395 kts 294°
2026-05-05 13:36 43.63068 -22.65782 34425 ft 395 kts 294°
2026-05-05 13:36 43.64689 -22.73023 34420 ft 395 kts 294°
2026-05-05 13:37 43.66306 -22.80295 34420 ft 396 kts 294°
2026-05-05 13:37 43.67913 -22.87563 34419 ft 396 kts 294°
2026-05-05 13:38 43.69510 -22.94786 34425 ft 396 kts 294°
2026-05-05 13:38 43.71110 -23.02065 34421 ft 396 kts 293°
2026-05-05 13:39 43.72706 -23.09352 34420 ft 396 kts 293°
2026-05-05 13:39 43.74301 -23.16644 34415 ft 396 kts 293°
2026-05-05 13:40 43.75894 -23.23946 34422 ft 396 kts 293°
2026-05-05 13:40 43.77481 -23.31252 34425 ft 396 kts 293°
2026-05-05 13:41 43.79058 -23.38544 34418 ft 396 kts 292°
2026-05-05 13:41 43.80638 -23.45848 34424 ft 396 kts 292°
2026-05-05 13:42 43.82211 -23.53157 34424 ft 396 kts 292°
2026-05-05 13:42 43.83776 -23.60478 34427 ft 396 kts 292°
2026-05-05 13:43 43.85327 -23.67749 34433 ft 396 kts 292°
2026-05-05 13:43 43.86884 -23.75065 34429 ft 396 kts 292°
2026-05-05 13:44 43.88431 -23.82404 34424 ft 396 kts 292°
2026-05-05 13:44 43.89982 -23.89744 34424 ft 397 kts 291°
2026-05-05 13:45 43.91526 -23.97083 34424 ft 397 kts 291°
2026-05-05 13:45 43.93067 -24.04427 34425 ft 397 kts 291°
2026-05-05 13:46 43.94604 -24.11779 34427 ft 397 kts 291°
2026-05-05 13:46 43.96136 -24.19137 34431 ft 397 kts 291°
2026-05-05 13:47 43.97661 -24.26503 34435 ft 397 kts 291°
2026-05-05 13:47 43.99186 -24.33885 34431 ft 398 kts 291°
2026-05-05 13:48 44.00694 -24.41218 34433 ft 398 kts 290°
2026-05-05 13:48 44.02205 -24.48611 34436 ft 398 kts 290°
2026-05-05 13:49 44.03719 -24.55993 34432 ft 397 kts 290°
2026-05-05 13:49 44.05224 -24.63380 34442 ft 397 kts 290°
2026-05-05 13:50 44.06718 -24.70780 34438 ft 398 kts 290°
2026-05-05 13:50 44.08212 -24.78185 34439 ft 397 kts 290°
2026-05-05 13:51 44.09705 -24.85568 34443 ft 397 kts 290°
2026-05-05 13:51 44.11191 -24.92980 34443 ft 397 kts 290°
2026-05-05 13:52 44.12661 -25.00337 34447 ft 397 kts 290°
2026-05-05 13:52 44.14139 -25.07744 34448 ft 397 kts 290°
2026-05-05 13:53 44.15611 -25.15155 34447 ft 397 kts 289°
2026-05-05 13:53 44.17076 -25.22583 34449 ft 397 kts 289°
2026-05-05 13:54 44.18534 -25.30002 34449 ft 397 kts 289°
2026-05-05 13:54 44.19984 -25.37432 34447 ft 397 kts 289°
2026-05-05 13:55 44.21421 -25.44816 34454 ft 397 kts 289°
2026-05-05 13:55 44.22862 -25.52245 34457 ft 397 kts 289°
2026-05-05 13:56 44.24313 -25.59678 34451 ft 397 kts 289°
2026-05-05 13:56 44.25750 -25.67105 34452 ft 397 kts 289°
2026-05-05 13:57 44.27183 -25.74547 34452 ft 397 kts 289°
2026-05-05 13:57 44.28601 -25.81978 34456 ft 396 kts 289°
2026-05-05 13:58 44.30013 -25.89411 34455 ft 396 kts 289°
2026-05-05 13:58 44.31434 -25.96836 34447 ft 396 kts 289°
2026-05-05 13:59 44.33546 -26.07976 34452 ft 395 kts 288°
2026-05-05 14:00 44.35401 -26.17850 34455 ft 395 kts 288°
2026-05-05 14:00 44.37015 -26.26460 34456 ft 394 kts 288°
2026-05-05 14:01 44.38399 -26.33861 34459 ft 393 kts 288°
2026-05-05 14:01 44.39769 -26.41235 34462 ft 392 kts 288°
2026-05-05 14:02 44.41126 -26.48603 34458 ft 390 kts 288°
2026-05-05 14:02 44.42484 -26.55945 34459 ft 389 kts 288°
2026-05-05 14:03 44.43826 -26.63260 34467 ft 388 kts 288°
2026-05-05 14:03 44.45164 -26.70565 34474 ft 387 kts 288°
2026-05-05 14:04 44.46487 -26.77853 34461 ft 386 kts 288°
2026-05-05 14:04 44.47808 -26.85133 34464 ft 385 kts 288°
2026-05-05 14:05 44.49108 -26.92345 34465 ft 384 kts 288°
2026-05-05 14:05 44.50409 -26.99593 34464 ft 384 kts 288°
2026-05-05 14:06 44.51703 -27.06813 34463 ft 383 kts 288°
2026-05-05 14:06 44.53003 -27.14049 34463 ft 382 kts 288°
2026-05-05 14:07 44.54290 -27.21271 34463 ft 381 kts 288°
2026-05-05 14:07 44.55568 -27.28480 34464 ft 381 kts 288°
2026-05-05 14:08 44.56841 -27.35692 34465 ft 381 kts 288°
2026-05-05 14:08 44.58100 -27.42895 34466 ft 380 kts 288°
2026-05-05 14:09 44.59349 -27.50046 34464 ft 379 kts 288°
2026-05-05 14:09 44.60607 -27.57226 34465 ft 379 kts 288°
2026-05-05 14:10 44.61845 -27.64397 34462 ft 378 kts 288°
2026-05-05 14:10 44.63080 -27.71562 34468 ft 377 kts 288°
2026-05-05 14:11 44.64311 -27.78696 34466 ft 376 kts 289°
2026-05-05 14:11 44.65335 -27.84626 34464 ft 376 kts 288°
2026-05-05 14:12 44.66751 -27.92914 34470 ft 375 kts 288°
2026-05-05 14:12 44.67963 -28.00020 34468 ft 373 kts 288°
2026-05-05 14:13 44.68963 -28.05917 34471 ft 372 kts 288°
2026-05-05 14:13 44.70157 -28.12987 34474 ft 372 kts 288°
2026-05-05 14:14 44.71333 -28.20066 34467 ft 371 kts 288°
2026-05-05 14:14 44.72508 -28.27126 34477 ft 370 kts 288°
2026-05-05 14:15 44.73681 -28.34171 34476 ft 370 kts 288°
2026-05-05 14:15 44.74851 -28.41199 34471 ft 369 kts 288°
2026-05-05 14:16 44.76019 -28.48216 34488 ft 368 kts 288°
2026-05-05 14:16 44.77177 -28.55179 34474 ft 367 kts 288°
2026-05-05 14:17 44.78325 -28.62180 34466 ft 367 kts 288°
2026-05-05 14:17 44.79468 -28.69164 34471 ft 366 kts 288°
2026-05-05 14:18 44.80602 -28.76147 34469 ft 365 kts 288°
2026-05-05 14:18 44.81723 -28.83114 34474 ft 365 kts 288°
2026-05-05 14:19 44.82841 -28.90082 34469 ft 364 kts 288°
2026-05-05 14:19 44.83963 -28.97028 34471 ft 363 kts 288°
2026-05-05 14:20 44.85068 -29.03965 34467 ft 363 kts 288°
2026-05-05 14:20 44.86171 -29.10900 34472 ft 362 kts 288°
2026-05-05 14:21 44.87269 -29.17804 34471 ft 361 kts 288°
2026-05-05 14:21 44.88367 -29.24705 34464 ft 361 kts 288°
2026-05-05 14:22 44.89444 -29.31575 34461 ft 361 kts 288°
2026-05-05 14:22 44.90526 -29.38472 34465 ft 360 kts 288°
2026-05-05 14:23 44.91593 -29.45380 34465 ft 360 kts 287°
2026-05-05 14:23 44.92660 -29.52287 34463 ft 360 kts 287°
2026-05-05 14:24 44.93724 -29.59176 34463 ft 359 kts 287°
2026-05-05 14:24 44.94788 -29.66067 34467 ft 359 kts 287°
2026-05-05 14:25 44.95845 -29.72959 34463 ft 359 kts 287°
2026-05-05 14:25 44.96902 -29.79843 34465 ft 359 kts 287°
2026-05-05 14:26 44.97957 -29.86725 34468 ft 359 kts 287°
2026-05-05 14:26 44.98998 -29.93574 34467 ft 359 kts 287°
2026-05-05 14:27 45.00099 -30.00442 34459 ft 357 kts 291°
2026-05-05 14:27 45.01716 -30.07058 34461 ft 356 kts 292°
2026-05-05 14:28 45.03375 -30.13649 34465 ft 356 kts 292°
2026-05-05 14:28 45.05037 -30.20248 34464 ft 356 kts 292°
2026-05-05 14:29 45.06691 -30.26842 34461 ft 356 kts 292°
2026-05-05 14:29 45.08342 -30.33456 34461 ft 356 kts 292°
2026-05-05 14:30 45.09988 -30.40064 34454 ft 356 kts 292°
2026-05-05 14:30 45.11628 -30.46677 34457 ft 356 kts 292°
2026-05-05 14:31 45.13259 -30.53283 34454 ft 356 kts 292°
2026-05-05 14:31 45.14889 -30.59915 34456 ft 356 kts 292°
2026-05-05 14:32 45.16508 -30.66510 34454 ft 357 kts 292°
2026-05-05 14:32 45.18131 -30.73155 34452 ft 357 kts 291°
2026-05-05 14:33 45.19756 -30.79808 34456 ft 357 kts 291°
2026-05-05 14:33 45.21378 -30.86463 34453 ft 358 kts 291°
2026-05-05 14:34 45.22991 -30.93140 34455 ft 358 kts 291°
2026-05-05 14:34 45.24607 -30.99826 34450 ft 358 kts 291°
2026-05-05 14:35 45.26217 -31.06505 34446 ft 358 kts 291°
2026-05-05 14:35 45.27817 -31.13196 34445 ft 358 kts 291°
2026-05-05 14:36 45.29414 -31.19836 34437 ft 358 kts 291°
2026-05-05 14:36 45.31008 -31.26534 34439 ft 358 kts 290°
2026-05-05 14:37 45.32597 -31.33236 34440 ft 358 kts 290°
2026-05-05 14:37 45.34188 -31.39929 34442 ft 357 kts 290°
2026-05-05 14:38 45.35780 -31.46623 34445 ft 357 kts 290°
2026-05-05 14:38 45.37366 -31.53311 34447 ft 357 kts 290°
2026-05-05 14:39 45.38943 -31.60017 34438 ft 357 kts 290°
2026-05-05 14:39 45.40519 -31.66721 34438 ft 357 kts 290°
2026-05-05 14:40 45.42088 -31.73429 34435 ft 357 kts 289°
2026-05-05 14:40 45.43649 -31.80134 34435 ft 357 kts 289°
2026-05-05 14:41 45.45205 -31.86837 34432 ft 357 kts 289°
2026-05-05 14:41 45.46748 -31.93501 34430 ft 357 kts 289°
2026-05-05 14:42 45.48301 -32.00212 34428 ft 357 kts 289°
2026-05-05 14:42 45.49846 -32.06923 34426 ft 356 kts 289°
2026-05-05 14:43 45.51388 -32.13637 34427 ft 356 kts 288°
2026-05-05 14:43 45.52925 -32.20361 34424 ft 356 kts 288°
2026-05-05 14:44 45.54454 -32.27079 34421 ft 356 kts 288°
2026-05-05 14:44 45.55983 -32.33795 34421 ft 356 kts 288°
2026-05-05 14:45 45.57508 -32.40523 34414 ft 356 kts 288°
2026-05-05 14:45 45.59028 -32.47248 34412 ft 356 kts 288°
2026-05-05 14:46 45.60532 -32.53956 34416 ft 355 kts 287°
2026-05-05 14:46 45.62038 -32.60679 34410 ft 355 kts 287°
2026-05-05 14:47 45.63536 -32.67354 34409 ft 355 kts 287°
2026-05-05 14:47 45.65038 -32.74067 34403 ft 355 kts 287°
2026-05-05 14:48 45.66533 -32.80783 34397 ft 355 kts 287°
2026-05-05 14:48 45.68025 -32.87507 34407 ft 355 kts 287°
2026-05-05 14:49 45.69510 -32.94235 34399 ft 355 kts 287°
2026-05-05 14:49 45.70989 -33.00959 34397 ft 354 kts 287°
2026-05-05 14:50 45.72453 -33.07696 34391 ft 355 kts 286°
2026-05-05 14:50 45.73937 -33.14423 34393 ft 354 kts 286°
2026-05-05 14:51 45.75404 -33.21144 34393 ft 354 kts 286°
2026-05-05 14:51 45.76869 -33.27888 34387 ft 355 kts 286°
2026-05-05 14:52 45.78334 -33.34632 34384 ft 355 kts 285°
2026-05-05 14:52 45.79792 -33.41385 34426 ft 356 kts 285°
2026-05-05 14:53 45.80518 -33.44746 34615 ft 357 kts 285°
2026-05-05 14:53 45.81249 -33.48147 34839 ft 357 kts 285°
2026-05-05 14:53 45.81980 -33.51555 35032 ft 358 kts 286°
2026-05-05 14:53 45.82715 -33.54973 35218 ft 359 kts 286°
2026-05-05 14:54 45.83449 -33.58402 35368 ft 361 kts 286°
2026-05-05 14:54 45.84182 -33.61847 35527 ft 362 kts 286°
2026-05-05 14:54 45.84919 -33.65313 35668 ft 363 kts 286°
2026-05-05 14:54 45.85657 -33.68778 35817 ft 364 kts 286°
2026-05-05 14:55 45.86400 -33.72257 35982 ft 365 kts 286°
2026-05-05 14:55 45.87144 -33.75745 36135 ft 366 kts 286°
2026-05-05 14:55 45.87887 -33.79239 36305 ft 366 kts 286°
2026-05-05 14:55 45.88627 -33.82733 36391 ft 367 kts 286°
2026-05-05 14:56 45.90106 -33.89737 36376 ft 366 kts 286°
2026-05-05 14:56 45.91559 -33.96692 36365 ft 366 kts 285°
2026-05-05 14:57 45.93022 -34.03694 36361 ft 366 kts 286°
2026-05-05 14:57 45.94488 -34.10695 36352 ft 366 kts 285°
2026-05-05 14:58 45.95935 -34.17698 36348 ft 365 kts 285°
2026-05-05 14:58 45.97381 -34.24700 36352 ft 365 kts 285°
2026-05-05 14:59 45.98824 -34.31695 36346 ft 365 kts 285°
2026-05-05 14:59 46.00267 -34.38704 36346 ft 365 kts 285°
2026-05-05 15:00 46.01458 -34.44521 36342 ft 365 kts 285°
2026-05-05 15:00 46.03121 -34.52667 36337 ft 365 kts 284°
2026-05-05 15:01 46.04558 -34.59677 36338 ft 365 kts 284°
2026-05-05 15:01 46.05985 -34.66694 36325 ft 365 kts 284°
2026-05-05 15:02 46.07412 -34.73699 36329 ft 365 kts 284°
2026-05-05 15:02 46.08840 -34.80724 36326 ft 366 kts 284°
2026-05-05 15:03 46.10254 -34.87759 36322 ft 365 kts 284°
2026-05-05 15:03 46.11657 -34.94806 36322 ft 366 kts 284°
2026-05-05 15:04 46.13065 -35.01856 36320 ft 367 kts 284°
2026-05-05 15:04 46.14476 -35.08881 36310 ft 367 kts 283°
2026-05-05 15:05 46.16588 -35.19510 36308 ft 368 kts 283°
2026-05-05 15:06 46.17984 -35.26598 36301 ft 368 kts 283°
2026-05-05 15:06 46.19380 -35.33713 36302 ft 368 kts 283°
2026-05-05 15:07 46.20773 -35.40828 36306 ft 368 kts 283°
2026-05-05 15:07 46.22158 -35.47961 36302 ft 369 kts 282°
2026-05-05 15:08 46.23538 -35.55097 36295 ft 369 kts 282°
2026-05-05 15:08 46.24916 -35.62243 36297 ft 370 kts 282°
2026-05-05 15:09 46.26300 -35.69406 36291 ft 370 kts 282°
2026-05-05 15:09 46.27676 -35.76533 36285 ft 371 kts 282°
2026-05-05 15:10 46.29054 -35.83712 36289 ft 371 kts 282°
2026-05-05 15:10 46.30422 -35.90905 36285 ft 371 kts 282°
2026-05-05 15:11 46.31784 -35.98094 36282 ft 371 kts 282°
2026-05-05 15:11 46.33150 -36.05313 36279 ft 372 kts 282°
2026-05-05 15:12 46.34511 -36.12537 36278 ft 373 kts 282°
2026-05-05 15:12 46.35874 -36.19779 36275 ft 373 kts 282°
2026-05-05 15:13 46.37231 -36.27031 36274 ft 374 kts 282°
2026-05-05 15:13 46.38358 -36.33071 36277 ft 374 kts 282°
2026-05-05 15:14 46.39711 -36.40351 36277 ft 374 kts 281°
2026-05-05 15:14 46.41055 -36.47633 36279 ft 374 kts 281°
2026-05-05 15:15 46.42397 -36.54928 36270 ft 374 kts 281°
2026-05-05 15:15 46.43733 -36.62227 36281 ft 375 kts 281°
2026-05-05 15:16 46.45058 -36.69474 36280 ft 375 kts 281°
2026-05-05 15:16 46.46389 -36.76779 36273 ft 374 kts 281°
2026-05-05 15:17 46.47686 -36.84085 36273 ft 374 kts 281°
2026-05-05 15:17 46.49008 -36.91397 36273 ft 374 kts 281°
2026-05-05 15:18 46.50323 -36.98706 36276 ft 374 kts 281°
2026-05-05 15:18 46.51637 -37.06016 36275 ft 374 kts 281°
2026-05-05 15:19 46.52942 -37.13332 36280 ft 374 kts 281°
2026-05-05 15:19 46.54243 -37.20637 36282 ft 374 kts 281°
2026-05-05 15:20 46.55545 -37.27947 36280 ft 374 kts 280°
2026-05-05 15:20 46.56834 -37.35213 36282 ft 374 kts 280°
2026-05-05 15:21 46.58121 -37.42512 36280 ft 373 kts 280°
2026-05-05 15:21 46.59400 -37.49823 36282 ft 373 kts 280°
2026-05-05 15:22 46.60671 -37.57133 36283 ft 373 kts 280°
2026-05-05 15:22 46.61939 -37.64437 36288 ft 372 kts 279°
2026-05-05 15:23 46.63193 -37.71738 36291 ft 372 kts 279°
2026-05-05 15:23 46.64443 -37.78984 36293 ft 372 kts 279°
2026-05-05 15:24 46.65693 -37.86279 36291 ft 371 kts 279°
2026-05-05 15:24 46.66930 -37.93579 36294 ft 371 kts 279°
2026-05-05 15:25 46.68167 -38.00877 36294 ft 371 kts 279°
2026-05-05 15:25 46.69384 -38.08166 36294 ft 371 kts 279°
2026-05-05 15:26 46.70603 -38.15458 36300 ft 370 kts 279°
2026-05-05 15:26 46.71840 -38.22735 36304 ft 370 kts 279°
2026-05-05 15:27 46.73063 -38.30019 36302 ft 370 kts 278°
2026-05-05 15:27 46.74259 -38.37261 36301 ft 370 kts 278°
2026-05-05 15:28 46.75470 -38.44539 36300 ft 369 kts 278°
2026-05-05 15:28 46.76669 -38.51818 36297 ft 369 kts 278°
2026-05-05 15:29 46.77874 -38.59095 36306 ft 369 kts 278°
2026-05-05 15:29 46.79063 -38.66380 36303 ft 369 kts 278°
2026-05-05 15:30 46.80249 -38.73650 36306 ft 368 kts 278°
2026-05-05 15:30 46.81429 -38.80925 36309 ft 368 kts 277°
2026-05-05 15:31 46.82601 -38.88198 36309 ft 368 kts 277°
2026-05-05 15:31 46.83763 -38.95463 36315 ft 367 kts 277°
2026-05-05 15:32 46.84918 -39.02732 36309 ft 367 kts 277°
2026-05-05 15:32 46.86072 -39.09945 36307 ft 367 kts 277°
2026-05-05 15:33 46.87226 -39.17201 36314 ft 366 kts 277°
2026-05-05 15:33 46.88372 -39.24452 36315 ft 366 kts 277°
2026-05-05 15:34 46.89513 -39.31701 36320 ft 365 kts 276°
2026-05-05 15:34 46.90643 -39.38938 36316 ft 365 kts 276°
2026-05-05 15:35 46.91768 -39.46158 36318 ft 364 kts 276°
2026-05-05 15:35 46.92886 -39.53376 36314 ft 363 kts 276°
2026-05-05 15:36 46.93998 -39.60586 36323 ft 363 kts 276°
2026-05-05 15:36 46.95083 -39.67786 36320 ft 362 kts 276°
2026-05-05 15:37 46.96172 -39.74928 36319 ft 362 kts 276°
2026-05-05 15:37 46.97283 -39.82119 36321 ft 362 kts 276°
2026-05-05 15:38 46.98380 -39.89302 36320 ft 361 kts 275°
2026-05-05 15:38 46.99462 -39.96484 36321 ft 361 kts 275°
2026-05-05 15:39 47.00535 -40.03675 36317 ft 361 kts 275°
2026-05-05 15:39 47.01580 -40.10868 36314 ft 361 kts 275°
2026-05-05 15:40 47.02613 -40.18050 36320 ft 360 kts 275°
2026-05-05 15:40 47.03642 -40.25186 36322 ft 360 kts 275°
2026-05-05 15:41 47.04670 -40.32369 36321 ft 361 kts 274°
2026-05-05 15:41 47.05697 -40.39567 36319 ft 361 kts 274°
2026-05-05 15:42 47.06725 -40.46789 36322 ft 362 kts 274°
2026-05-05 15:42 47.07743 -40.54015 36322 ft 362 kts 274°
2026-05-05 15:43 47.08761 -40.61262 36325 ft 363 kts 274°
2026-05-05 15:43 47.09777 -40.68528 36320 ft 364 kts 274°
2026-05-05 15:44 47.10794 -40.75812 36321 ft 365 kts 274°
2026-05-05 15:44 47.11803 -40.83114 36320 ft 365 kts 274°
2026-05-05 15:45 47.12803 -40.90389 36316 ft 366 kts 274°
2026-05-05 15:45 47.13806 -40.97727 36320 ft 367 kts 274°
2026-05-05 15:46 47.14813 -41.05084 36317 ft 368 kts 274°
2026-05-05 15:46 47.15821 -41.12468 36315 ft 369 kts 274°
2026-05-05 15:47 47.16820 -41.19870 36316 ft 370 kts 274°
2026-05-05 15:47 47.17814 -41.27285 36319 ft 371 kts 274°
2026-05-05 15:48 47.18816 -41.34736 36316 ft 372 kts 274°
2026-05-05 15:48 47.19795 -41.42151 36317 ft 373 kts 274°
2026-05-05 15:49 47.20784 -41.49638 36325 ft 373 kts 274°
2026-05-05 15:49 47.21781 -41.57146 36321 ft 374 kts 274°
2026-05-05 15:50 47.22765 -41.64663 36311 ft 375 kts 273°
2026-05-05 15:50 47.23731 -41.72205 36311 ft 375 kts 273°
2026-05-05 15:51 47.24700 -41.79757 36306 ft 376 kts 273°
2026-05-05 15:51 47.25684 -41.87317 36304 ft 377 kts 274°
2026-05-05 15:52 47.26668 -41.94896 36305 ft 377 kts 273°
2026-05-05 15:52 47.27633 -42.02481 36307 ft 377 kts 273°
2026-05-05 15:53 47.28597 -42.10074 36304 ft 378 kts 273°
2026-05-05 15:53 47.29545 -42.17634 36303 ft 378 kts 273°
2026-05-05 15:54 47.30492 -42.25252 36301 ft 378 kts 273°
2026-05-05 15:54 47.31435 -42.32887 36296 ft 379 kts 273°
2026-05-05 15:55 47.32393 -42.40533 36294 ft 380 kts 273°
2026-05-05 15:55 47.33331 -42.48188 36294 ft 380 kts 273°
2026-05-05 15:56 47.34266 -42.55856 36289 ft 380 kts 273°
2026-05-05 15:56 47.35213 -42.63531 36287 ft 380 kts 273°
2026-05-05 15:57 47.36145 -42.71212 36287 ft 380 kts 273°
2026-05-05 15:57 47.37064 -42.78898 36288 ft 381 kts 273°
2026-05-05 15:58 47.37983 -42.86596 36285 ft 381 kts 273°
2026-05-05 15:58 47.38895 -42.94295 36281 ft 381 kts 273°
2026-05-05 15:59 47.39802 -43.02006 36276 ft 381 kts 273°
2026-05-05 15:59 47.40697 -43.09677 36278 ft 382 kts 273°
2026-05-05 16:00 47.41602 -43.17408 36279 ft 383 kts 273°
2026-05-05 16:00 47.42512 -43.25156 36277 ft 383 kts 273°
2026-05-05 16:01 47.43409 -43.32908 36267 ft 384 kts 273°
2026-05-05 16:01 47.44306 -43.40697 36264 ft 385 kts 273°
2026-05-05 16:02 47.45191 -43.48494 36264 ft 385 kts 273°
2026-05-05 16:02 47.46070 -43.56240 36263 ft 386 kts 273°
2026-05-05 16:03 47.46956 -43.64060 36252 ft 386 kts 272°
2026-05-05 16:03 47.47831 -43.71893 36261 ft 386 kts 273°
2026-05-05 16:04 47.48692 -43.79742 36246 ft 387 kts 273°
2026-05-05 16:04 47.49565 -43.87608 36253 ft 388 kts 273°
2026-05-05 16:05 47.50428 -43.95483 36243 ft 388 kts 273°
2026-05-05 16:05 47.51283 -44.03377 36240 ft 389 kts 273°
2026-05-05 16:06 47.52134 -44.11274 36229 ft 390 kts 273°
2026-05-05 16:06 47.52979 -44.19142 36239 ft 391 kts 273°
2026-05-05 16:07 47.53825 -44.27092 36225 ft 391 kts 273°
2026-05-05 16:07 47.54670 -44.35058 36232 ft 392 kts 273°
2026-05-05 16:08 47.55506 -44.43035 36218 ft 393 kts 273°
2026-05-05 16:08 47.56341 -44.51042 36224 ft 394 kts 273°
2026-05-05 16:09 47.57173 -44.59064 36215 ft 395 kts 272°
2026-05-05 16:09 47.58008 -44.67112 36220 ft 396 kts 273°
2026-05-05 16:10 47.58834 -44.75119 36208 ft 396 kts 272°
2026-05-05 16:10 47.59645 -44.83201 36218 ft 397 kts 272°
2026-05-05 16:11 47.60455 -44.91292 36202 ft 398 kts 272°
2026-05-05 16:12 47.62074 -45.07549 36193 ft 399 kts 272°
2026-05-05 16:13 47.64077 -45.27925 36200 ft 401 kts 272°
2026-05-05 16:13 47.64869 -45.36125 36187 ft 402 kts 272°
2026-05-05 16:14 47.66446 -45.52581 36186 ft 404 kts 272°
2026-05-05 16:15 47.68003 -45.69115 36179 ft 405 kts 272°
2026-05-05 16:16 47.69537 -45.85710 36170 ft 406 kts 272°
2026-05-05 16:17 47.70677 -45.98144 36170 ft 407 kts 272°
2026-05-05 16:18 47.71799 -46.10658 36161 ft 408 kts 272°
2026-05-05 16:19 47.72794 -46.21792 36149 ft 409 kts 271°
2026-05-05 16:19 47.73907 -46.34367 36155 ft 410 kts 271°
2026-05-05 16:20 47.75369 -46.51169 36147 ft 411 kts 271°
2026-05-05 16:22 47.77166 -46.72271 36136 ft 412 kts 271°
2026-05-05 16:23 47.78555 -46.89169 36130 ft 414 kts 271°
2026-05-05 16:23 47.79605 -47.01925 36128 ft 415 kts 271°
2026-05-05 16:24 47.80298 -47.10449 36123 ft 416 kts 271°
2026-05-05 16:25 47.81322 -47.23276 36116 ft 417 kts 271°
2026-05-05 16:25 47.82343 -47.36138 36119 ft 418 kts 271°
2026-05-05 16:26 47.83678 -47.53335 36112 ft 419 kts 270°
2026-05-05 16:27 47.84341 -47.61900 36108 ft 419 kts 270°
2026-05-05 16:27 47.85001 -47.70513 36103 ft 419 kts 270°
2026-05-05 16:28 47.85636 -47.79142 36099 ft 420 kts 270°
2026-05-05 16:28 47.86279 -47.87784 36114 ft 420 kts 270°
2026-05-05 16:29 47.86923 -47.96428 36104 ft 420 kts 270°
2026-05-05 16:29 47.87559 -48.05089 36107 ft 421 kts 270°
2026-05-05 16:30 47.88181 -48.13750 36100 ft 421 kts 270°
2026-05-05 16:30 47.88794 -48.22418 36102 ft 421 kts 270°
2026-05-05 16:31 47.89408 -48.31096 36084 ft 421 kts 270°
2026-05-05 16:31 47.90011 -48.39728 36258 ft 420 kts 272°
2026-05-05 16:32 47.90597 -48.48205 36132 ft 407 kts 273°
2026-05-05 16:32 47.91166 -48.56570 36076 ft 405 kts 273°
2026-05-05 16:33 47.91726 -48.64929 36073 ft 405 kts 273°
2026-05-05 16:33 47.92284 -48.73275 36073 ft 405 kts 273°
2026-05-05 16:34 47.92829 -48.81581 36072 ft 405 kts 273°
2026-05-05 16:34 47.93368 -48.89933 36066 ft 405 kts 273°
2026-05-05 16:35 47.93903 -48.98287 36067 ft 404 kts 273°
2026-05-05 16:35 47.94429 -49.06638 36064 ft 405 kts 273°
2026-05-05 16:36 47.94955 -49.14982 36060 ft 405 kts 273°
2026-05-05 16:36 47.95483 -49.23344 36054 ft 405 kts 273°
2026-05-05 16:37 47.95997 -49.31714 36060 ft 405 kts 273°
2026-05-05 16:37 47.96508 -49.40088 36053 ft 405 kts 273°
2026-05-05 16:38 47.97006 -49.48470 36051 ft 406 kts 273°
2026-05-05 16:38 47.97493 -49.56810 36047 ft 406 kts 273°
2026-05-05 16:39 47.97987 -49.65200 36045 ft 406 kts 273°
2026-05-05 16:39 47.98472 -49.73598 36043 ft 406 kts 273°
2026-05-05 16:40 47.98950 -49.82005 36038 ft 407 kts 273°
2026-05-05 16:40 47.99425 -49.90422 36039 ft 407 kts 272°
2026-05-05 16:41 47.99712 -49.98836 36034 ft 406 kts 265°
2026-05-05 16:41 47.99249 -50.02984 36027 ft 405 kts 254°
2026-05-05 16:41 47.98360 -50.06974 36030 ft 405 kts 251°
2026-05-05 16:42 47.96430 -50.14821 36031 ft 405 kts 250°
2026-05-05 16:42 47.94506 -50.22726 36032 ft 406 kts 251°
2026-05-05 16:43 47.92590 -50.30637 36028 ft 406 kts 251°
2026-05-05 16:43 47.90657 -50.38543 36028 ft 405 kts 251°
2026-05-05 16:44 47.88740 -50.46437 36030 ft 406 kts 251°
2026-05-05 16:44 47.86813 -50.54344 36029 ft 406 kts 251°
2026-05-05 16:45 47.84884 -50.62240 36027 ft 406 kts 251°
2026-05-05 16:45 47.82929 -50.70124 36028 ft 406 kts 251°
2026-05-05 16:46 47.80980 -50.78000 36015 ft 406 kts 251°
2026-05-05 16:46 47.79040 -50.85825 36022 ft 406 kts 251°
2026-05-05 16:47 47.77073 -50.93702 36029 ft 406 kts 251°
2026-05-05 16:47 47.75114 -51.01578 36026 ft 406 kts 251°
2026-05-05 16:48 47.73145 -51.09449 36026 ft 406 kts 251°
2026-05-05 16:48 47.71174 -51.17311 36022 ft 406 kts 251°
2026-05-05 16:49 47.69192 -51.25162 36022 ft 406 kts 251°
2026-05-05 16:49 47.67200 -51.32998 36020 ft 406 kts 251°
2026-05-05 16:50 47.65212 -51.40833 36021 ft 406 kts 251°
2026-05-05 16:50 47.63228 -51.48601 36020 ft 405 kts 251°
2026-05-05 16:51 47.61233 -51.56399 36023 ft 405 kts 251°
2026-05-05 16:51 47.59230 -51.64200 36018 ft 405 kts 251°
2026-05-05 16:52 47.57223 -51.71996 36021 ft 405 kts 251°
2026-05-05 16:52 47.55213 -51.79785 36016 ft 405 kts 251°
2026-05-05 16:53 47.53196 -51.87552 36016 ft 404 kts 251°
2026-05-05 16:53 47.51176 -51.95316 36017 ft 404 kts 251°
2026-05-05 16:54 47.49779 -52.03308 36014 ft 402 kts 265°
2026-05-05 16:54 47.49442 -52.11490 36014 ft 401 kts 267°
2026-05-05 16:55 47.49116 -52.19725 36009 ft 401 kts 266°
2026-05-05 16:55 47.48764 -52.27963 36003 ft 401 kts 266°
2026-05-05 16:56 47.48411 -52.36190 35989 ft 401 kts 266°
2026-05-05 16:56 47.48048 -52.44419 35978 ft 401 kts 266°
2026-05-05 16:57 47.47675 -52.52630 35969 ft 400 kts 266°
2026-05-05 16:57 47.47293 -52.60834 35965 ft 400 kts 266°
2026-05-05 16:58 47.46927 -52.69036 35956 ft 400 kts 266°
2026-05-05 16:58 47.46534 -52.77181 35957 ft 400 kts 266°
2026-05-05 16:59 47.46135 -52.85378 35961 ft 400 kts 266°
2026-05-05 16:59 47.45741 -52.93589 35963 ft 400 kts 266°
2026-05-05 17:00 47.45337 -53.01786 35969 ft 400 kts 266°
2026-05-05 17:00 47.44922 -53.09977 35973 ft 400 kts 266°
2026-05-05 17:01 47.44517 -53.18172 35980 ft 400 kts 266°
2026-05-05 17:01 47.44096 -53.26357 35981 ft 400 kts 266°
2026-05-05 17:02 47.43662 -53.34548 35984 ft 400 kts 266°
2026-05-05 17:02 47.43235 -53.42721 35988 ft 399 kts 266°
2026-05-05 17:03 47.42795 -53.50835 35989 ft 399 kts 266°
2026-05-05 17:03 47.42350 -53.58993 35986 ft 398 kts 266°
2026-05-05 17:04 47.41897 -53.67131 35993 ft 398 kts 266°
2026-05-05 17:04 47.41437 -53.75275 35998 ft 398 kts 266°
2026-05-05 17:05 47.40987 -53.83412 35984 ft 398 kts 266°
2026-05-05 17:05 47.40516 -53.91537 35996 ft 397 kts 266°
2026-05-05 17:06 47.40034 -53.99640 35992 ft 397 kts 266°
2026-05-05 17:06 47.39574 -54.07756 35998 ft 397 kts 266°
2026-05-05 17:07 47.39094 -54.15820 35988 ft 397 kts 266°
2026-05-05 17:07 47.38607 -54.23920 36000 ft 396 kts 266°
2026-05-05 17:08 47.38121 -54.32018 36002 ft 396 kts 266°
2026-05-05 17:08 47.37622 -54.40093 36007 ft 395 kts 266°
2026-05-05 17:09 47.37107 -54.48164 36011 ft 395 kts 266°
2026-05-05 17:09 47.36596 -54.56233 36012 ft 395 kts 266°
2026-05-05 17:10 47.36086 -54.64295 36003 ft 395 kts 266°
2026-05-05 17:10 47.35574 -54.72344 36011 ft 394 kts 266°
2026-05-05 17:11 47.35045 -54.80341 36012 ft 394 kts 266°
2026-05-05 17:11 47.34520 -54.88374 36015 ft 394 kts 266°
2026-05-05 17:12 47.33989 -54.96404 36008 ft 394 kts 267°
2026-05-05 17:12 47.33444 -55.04435 36004 ft 393 kts 266°
2026-05-05 17:13 47.32875 -55.12453 35999 ft 393 kts 266°
2026-05-05 17:13 47.32309 -55.20462 35986 ft 393 kts 267°
2026-05-05 17:14 47.31759 -55.28478 35983 ft 393 kts 267°
2026-05-05 17:14 47.31204 -55.36490 35974 ft 393 kts 267°
2026-05-05 17:15 47.30641 -55.44445 35967 ft 393 kts 267°
2026-05-05 17:15 47.30072 -55.52440 35963 ft 392 kts 267°
2026-05-05 17:16 47.29482 -55.60420 35948 ft 392 kts 267°
2026-05-05 17:16 47.28886 -55.68392 35951 ft 391 kts 267°
2026-05-05 17:17 47.28299 -55.76356 35947 ft 391 kts 267°
2026-05-05 17:17 47.27715 -55.84315 35949 ft 391 kts 267°
2026-05-05 17:18 47.27142 -55.92267 35951 ft 391 kts 267°
2026-05-05 17:18 47.26530 -56.00217 35952 ft 390 kts 267°
2026-05-05 17:19 47.25908 -56.08151 35955 ft 390 kts 267°
2026-05-05 17:19 47.25312 -56.16020 35957 ft 390 kts 267°
2026-05-05 17:20 47.24714 -56.23949 35957 ft 389 kts 267°
2026-05-05 17:20 47.24082 -56.31861 35967 ft 389 kts 267°
2026-05-05 17:21 47.23445 -56.39771 35969 ft 389 kts 267°
2026-05-05 17:22 47.22492 -56.51624 35974 ft 389 kts 267°
2026-05-05 17:22 47.21857 -56.59522 35977 ft 389 kts 267°
2026-05-05 17:23 47.21212 -56.67365 35981 ft 389 kts 267°
2026-05-05 17:23 47.20556 -56.75262 35985 ft 389 kts 267°
2026-05-05 17:24 47.19913 -56.83161 35992 ft 389 kts 267°
2026-05-05 17:24 47.19248 -56.91045 35997 ft 389 kts 267°
2026-05-05 17:25 47.18690 -56.97603 35995 ft 389 kts 267°
2026-05-05 17:25 47.18021 -57.05484 36006 ft 389 kts 266°
2026-05-05 17:26 47.16893 -57.13300 36003 ft 393 kts 260°
2026-05-05 17:26 47.15518 -57.21062 36003 ft 393 kts 260°
2026-05-05 17:27 47.14158 -57.28830 36000 ft 393 kts 260°
2026-05-05 17:27 47.12790 -57.36593 36000 ft 393 kts 260°
2026-05-05 17:28 47.11427 -57.44305 36003 ft 393 kts 260°
2026-05-05 17:28 47.10050 -57.52063 36002 ft 393 kts 260°
2026-05-05 17:29 47.08667 -57.59813 36001 ft 393 kts 260°
2026-05-05 17:29 47.07275 -57.67558 35998 ft 393 kts 260°
2026-05-05 17:30 47.05879 -57.75312 35997 ft 393 kts 260°
2026-05-05 17:30 47.04479 -57.83055 35998 ft 393 kts 260°
2026-05-05 17:31 47.03054 -57.90801 35993 ft 393 kts 259°
2026-05-05 17:31 47.01645 -57.98542 35991 ft 393 kts 259°
2026-05-05 17:32 47.00231 -58.06228 35997 ft 393 kts 259°
2026-05-05 17:32 46.98824 -58.13959 35997 ft 393 kts 259°
2026-05-05 17:33 46.97399 -58.21690 35994 ft 393 kts 259°
2026-05-05 17:33 46.95969 -58.29420 35992 ft 393 kts 259°
2026-05-05 17:34 46.94533 -58.37155 35986 ft 394 kts 259°
2026-05-05 17:34 46.93086 -58.44886 35988 ft 394 kts 259°
2026-05-05 17:35 46.91645 -58.52559 35983 ft 394 kts 259°
2026-05-05 17:35 46.90188 -58.60295 35991 ft 394 kts 259°
2026-05-05 17:36 46.88724 -58.68016 35974 ft 394 kts 259°
2026-05-05 17:36 46.87256 -58.75749 35973 ft 395 kts 259°
2026-05-05 17:37 46.85774 -58.83465 35968 ft 395 kts 259°
2026-05-05 17:37 46.84275 -58.91179 35971 ft 394 kts 259°
2026-05-05 17:38 46.82800 -58.98882 35972 ft 394 kts 259°
2026-05-05 17:38 46.81322 -59.06540 35960 ft 394 kts 259°
2026-05-05 17:39 46.79824 -59.14231 35955 ft 394 kts 259°
2026-05-05 17:39 46.78330 -59.21915 35950 ft 394 kts 259°
2026-05-05 17:40 46.76838 -59.29593 35951 ft 393 kts 259°
2026-05-05 17:40 46.75338 -59.37258 35948 ft 393 kts 259°
2026-05-05 17:41 46.73828 -59.44903 35948 ft 392 kts 258°
2026-05-05 17:41 46.72316 -59.52532 35940 ft 392 kts 258°
2026-05-05 17:42 46.70803 -59.60158 35937 ft 392 kts 258°
2026-05-05 17:42 46.69284 -59.67716 35936 ft 391 kts 258°
2026-05-05 17:43 46.67766 -59.75317 35933 ft 391 kts 258°
2026-05-05 17:43 46.66254 -59.82913 35930 ft 391 kts 258°
2026-05-05 17:44 46.64721 -59.90508 35924 ft 391 kts 258°
2026-05-05 17:44 46.63187 -59.98088 35925 ft 391 kts 258°
2026-05-05 17:45 46.61646 -60.05681 35916 ft 391 kts 258°
2026-05-05 17:45 46.60096 -60.13260 35909 ft 391 kts 258°
2026-05-05 17:46 46.58544 -60.20834 35900 ft 391 kts 258°
2026-05-05 17:46 46.56999 -60.28364 35892 ft 392 kts 257°
2026-05-05 17:47 46.55428 -60.35948 35892 ft 392 kts 257°
2026-05-05 17:47 46.53856 -60.43531 35901 ft 393 kts 257°
2026-05-05 17:48 46.52267 -60.51120 35896 ft 393 kts 257°
2026-05-05 17:48 46.50682 -60.58720 35893 ft 394 kts 257°
2026-05-05 17:49 46.49089 -60.66331 35890 ft 394 kts 257°
2026-05-05 17:49 46.47486 -60.73936 35892 ft 394 kts 257°
2026-05-05 17:50 46.45891 -60.81487 35888 ft 394 kts 257°
2026-05-05 17:50 46.44271 -60.89086 35892 ft 394 kts 257°
2026-05-05 17:51 46.42654 -60.96693 35890 ft 395 kts 257°
2026-05-05 17:51 46.41043 -61.04288 35890 ft 395 kts 257°
2026-05-05 17:52 46.39419 -61.11885 35888 ft 394 kts 257°
2026-05-05 17:52 46.37795 -61.19461 35891 ft 394 kts 256°
2026-05-05 17:53 46.36145 -61.27033 35894 ft 394 kts 256°
2026-05-05 17:53 46.34506 -61.34602 35894 ft 394 kts 256°
2026-05-05 17:54 46.32869 -61.42170 35896 ft 394 kts 256°
2026-05-05 17:54 46.31235 -61.49675 35899 ft 394 kts 256°
2026-05-05 17:55 46.29582 -61.57237 35897 ft 394 kts 256°
2026-05-05 17:55 46.27924 -61.64776 35899 ft 394 kts 256°
2026-05-05 17:56 46.26246 -61.72308 35898 ft 394 kts 256°
2026-05-05 17:56 46.24574 -61.79848 35905 ft 394 kts 256°
2026-05-05 17:57 46.22918 -61.87374 35906 ft 393 kts 256°
2026-05-05 17:57 46.21243 -61.94899 35907 ft 394 kts 255°
2026-05-05 17:58 46.19559 -62.02420 35903 ft 393 kts 255°
2026-05-05 17:58 46.17883 -62.09885 35902 ft 393 kts 255°
2026-05-05 17:59 46.16196 -62.17383 35899 ft 393 kts 255°
2026-05-05 17:59 46.14499 -62.24883 35898 ft 393 kts 255°
2026-05-05 18:00 46.12799 -62.32377 35888 ft 393 kts 255°
2026-05-05 18:00 46.11096 -62.39862 35888 ft 393 kts 255°
2026-05-05 18:01 46.09365 -62.47338 35887 ft 393 kts 255°
2026-05-05 18:01 46.07656 -62.54818 35890 ft 393 kts 255°
2026-05-05 18:02 46.05943 -62.62302 35888 ft 393 kts 255°
2026-05-05 18:02 46.04235 -62.69725 35884 ft 393 kts 255°
2026-05-05 18:03 46.02503 -62.77188 35884 ft 393 kts 254°
2026-05-05 18:03 46.00770 -62.84647 35886 ft 393 kts 254°
2026-05-05 18:04 45.99035 -62.92094 35889 ft 393 kts 254°
2026-05-05 18:04 45.97294 -62.99537 35887 ft 393 kts 254°
2026-05-05 18:05 45.95547 -63.06975 35884 ft 393 kts 254°
2026-05-05 18:05 45.93783 -63.14400 35882 ft 393 kts 254°
2026-05-05 18:06 45.92017 -63.21807 35879 ft 393 kts 253°
2026-05-05 18:06 45.90278 -63.29182 35875 ft 392 kts 254°
2026-05-05 18:07 45.88521 -63.36594 35876 ft 392 kts 253°
2026-05-05 18:07 45.86758 -63.43986 35878 ft 392 kts 253°
2026-05-05 18:08 45.84990 -63.51374 35870 ft 391 kts 253°
2026-05-05 18:08 45.83213 -63.58756 35873 ft 391 kts 253°
2026-05-05 18:09 45.81434 -63.66116 35870 ft 391 kts 253°
2026-05-05 18:09 45.79655 -63.73481 35869 ft 391 kts 253°
2026-05-05 18:10 45.77858 -63.80824 35865 ft 391 kts 253°
2026-05-05 18:10 45.76074 -63.88115 35864 ft 390 kts 253°
2026-05-05 18:11 45.74269 -63.95445 35866 ft 391 kts 253°
2026-05-05 18:11 45.72475 -64.02782 35867 ft 390 kts 253°
2026-05-05 18:12 45.70676 -64.10109 35864 ft 390 kts 253°
2026-05-05 18:12 45.68886 -64.17440 35863 ft 391 kts 253°
2026-05-05 18:13 45.67071 -64.24761 35870 ft 390 kts 252°
2026-05-05 18:13 45.65260 -64.32077 35871 ft 390 kts 252°
2026-05-05 18:14 45.63438 -64.39380 35880 ft 390 kts 252°
2026-05-05 18:14 45.61611 -64.46672 35875 ft 390 kts 252°
2026-05-05 18:15 45.59800 -64.53918 35881 ft 390 kts 252°
2026-05-05 18:15 45.57961 -64.61207 35882 ft 390 kts 252°
2026-05-05 18:16 45.56121 -64.68480 35882 ft 390 kts 252°
2026-05-05 18:16 45.54283 -64.75769 35890 ft 391 kts 252°
2026-05-05 18:17 45.52433 -64.83055 35894 ft 391 kts 252°
2026-05-05 18:17 45.50574 -64.90333 35894 ft 391 kts 252°
2026-05-05 18:18 45.48695 -64.97606 35903 ft 391 kts 252°
2026-05-05 18:18 45.46837 -65.04835 35894 ft 391 kts 252°
2026-05-05 18:19 45.44982 -65.12130 35887 ft 392 kts 252°
2026-05-05 18:19 45.43114 -65.19408 35910 ft 391 kts 252°
2026-05-05 18:20 45.41230 -65.26675 35905 ft 391 kts 251°
2026-05-05 18:20 45.39342 -65.33943 35904 ft 391 kts 251°
2026-05-05 18:21 45.37458 -65.41200 35911 ft 391 kts 251°
2026-05-05 18:21 45.35562 -65.48441 35906 ft 391 kts 251°
2026-05-05 18:22 45.33669 -65.55676 35907 ft 390 kts 251°
2026-05-05 18:22 45.31767 -65.62838 35905 ft 390 kts 251°
2026-05-05 18:23 45.29852 -65.70038 35904 ft 389 kts 251°
2026-05-05 18:23 45.27955 -65.77233 35899 ft 388 kts 251°
2026-05-05 18:24 45.26061 -65.84414 35899 ft 388 kts 251°
2026-05-05 18:24 45.24159 -65.91579 35899 ft 388 kts 251°
2026-05-05 18:25 45.22239 -65.98736 35903 ft 388 kts 251°
2026-05-05 18:25 45.20332 -66.05888 35901 ft 388 kts 251°
2026-05-05 18:26 45.18429 -66.13035 35910 ft 388 kts 251°
2026-05-05 18:26 45.16504 -66.20172 35906 ft 388 kts 251°
2026-05-05 18:27 45.14579 -66.27305 35909 ft 388 kts 251°
2026-05-05 18:27 45.12650 -66.34430 35911 ft 388 kts 251°
2026-05-05 18:28 45.09757 -66.45067 35901 ft 388 kts 250°
2026-05-05 18:28 45.07815 -66.52182 35900 ft 388 kts 250°
2026-05-05 18:29 45.05869 -66.59295 35901 ft 387 kts 250°
2026-05-05 18:29 45.03918 -66.66394 35892 ft 387 kts 250°
2026-05-05 18:30 45.01967 -66.73485 35886 ft 387 kts 250°
2026-05-05 18:30 45.00343 -66.79376 35888 ft 387 kts 250°
2026-05-05 18:31 44.98382 -66.86447 35879 ft 387 kts 250°
2026-05-05 18:31 44.96406 -66.93519 35964 ft 387 kts 250°
2026-05-05 18:32 44.95106 -66.98199 36293 ft 387 kts 250°
2026-05-05 18:32 44.94118 -67.01731 36584 ft 386 kts 250°
2026-05-05 18:32 44.93454 -67.04123 36749 ft 386 kts 250°
2026-05-05 18:32 44.92469 -67.07655 36951 ft 387 kts 250°
2026-05-05 18:33 44.91477 -67.11185 37173 ft 388 kts 250°
2026-05-05 18:33 44.90478 -67.14711 37365 ft 389 kts 249°
2026-05-05 18:33 44.89347 -67.18194 37554 ft 390 kts 246°
2026-05-05 18:33 44.88176 -67.21590 37751 ft 390 kts 246°
2026-05-05 18:34 44.86988 -67.25030 37896 ft 391 kts 246°
2026-05-05 18:34 44.85793 -67.28479 37900 ft 391 kts 246°
2026-05-05 18:34 44.83415 -67.35359 37868 ft 391 kts 246°
2026-05-05 18:35 44.81039 -67.42239 37860 ft 391 kts 246°
2026-05-05 18:35 44.78646 -67.49122 37860 ft 391 kts 245°
2026-05-05 18:36 44.76251 -67.55992 37858 ft 392 kts 245°
2026-05-05 18:36 44.73841 -67.62862 37850 ft 392 kts 245°
2026-05-05 18:37 44.71452 -67.69753 37853 ft 392 kts 245°
2026-05-05 18:37 44.69044 -67.76632 37856 ft 392 kts 245°
2026-05-05 18:38 44.66625 -67.83508 37855 ft 393 kts 245°
2026-05-05 18:38 44.64217 -67.90327 37860 ft 393 kts 245°
2026-05-05 18:39 44.61788 -67.97195 37851 ft 393 kts 245°
2026-05-05 18:39 44.59353 -68.04066 37849 ft 393 kts 245°
2026-05-05 18:40 44.56927 -68.10890 37846 ft 393 kts 245°
2026-05-05 18:40 44.54474 -68.17752 37847 ft 393 kts 245°
2026-05-05 18:41 44.52012 -68.24602 37840 ft 394 kts 245°
2026-05-05 18:41 44.49565 -68.31406 37839 ft 394 kts 245°
2026-05-05 18:42 44.47085 -68.38303 37843 ft 394 kts 245°
2026-05-05 18:42 44.44640 -68.45098 37842 ft 394 kts 244°
2026-05-05 18:43 44.42176 -68.51949 37842 ft 394 kts 244°
2026-05-05 18:43 44.39704 -68.58791 37838 ft 394 kts 245°
2026-05-05 18:44 44.37244 -68.65627 37842 ft 394 kts 244°
2026-05-05 18:44 44.34763 -68.72462 37837 ft 394 kts 244°
2026-05-05 18:45 44.32279 -68.79271 37830 ft 394 kts 244°
2026-05-05 18:45 44.29790 -68.86077 37832 ft 394 kts 244°
2026-05-05 18:46 44.27303 -68.92867 37827 ft 394 kts 244°
2026-05-05 18:46 44.24795 -68.99665 37829 ft 394 kts 244°
2026-05-05 18:47 44.22307 -69.06412 37832 ft 394 kts 244°
2026-05-05 18:47 44.19799 -69.13197 37836 ft 394 kts 244°
2026-05-05 18:48 44.17286 -69.19981 37837 ft 394 kts 244°
2026-05-05 18:48 44.14772 -69.26759 37829 ft 394 kts 244°
2026-05-05 18:49 44.12255 -69.33532 37836 ft 394 kts 244°
2026-05-05 18:49 44.09734 -69.40294 37836 ft 394 kts 244°
2026-05-05 18:50 44.07210 -69.47058 37824 ft 394 kts 244°
2026-05-05 18:50 44.04685 -69.53817 37824 ft 394 kts 244°
2026-05-05 18:51 44.02189 -69.60502 37827 ft 394 kts 243°
2026-05-05 18:51 43.99645 -69.67255 37822 ft 394 kts 243°
2026-05-05 18:52 43.97111 -69.73990 37819 ft 394 kts 243°
2026-05-05 18:52 43.94565 -69.80722 37819 ft 394 kts 243°
2026-05-05 18:53 43.92010 -69.87451 37809 ft 393 kts 243°
2026-05-05 18:53 43.89446 -69.94147 37811 ft 393 kts 243°
2026-05-05 18:54 43.86836 -70.00799 37802 ft 391 kts 236°
2026-05-05 18:54 43.83296 -70.06521 37811 ft 392 kts 230°
2026-05-05 18:55 43.79650 -70.12060 37808 ft 392 kts 230°
2026-05-05 18:55 43.76009 -70.17669 37793 ft 392 kts 230°
2026-05-05 18:56 43.72364 -70.23265 37790 ft 391 kts 230°
2026-05-05 18:56 43.68731 -70.28870 37790 ft 391 kts 230°
2026-05-05 18:57 43.65096 -70.34463 37790 ft 391 kts 230°
2026-05-05 18:57 43.61456 -70.40032 37790 ft 391 kts 230°
2026-05-05 18:58 43.57810 -70.45593 37787 ft 391 kts 230°
2026-05-05 18:58 43.54159 -70.51148 37771 ft 391 kts 230°
2026-05-05 18:59 43.50515 -70.56698 37775 ft 390 kts 230°
2026-05-05 18:59 43.46896 -70.62203 37773 ft 391 kts 230°
2026-05-05 19:00 43.43246 -70.67738 37771 ft 392 kts 230°
2026-05-05 19:00 43.39566 -70.73325 37768 ft 395 kts 230°
2026-05-05 19:01 43.35882 -70.78901 37764 ft 395 kts 229°
2026-05-05 19:01 43.32184 -70.84478 37744 ft 395 kts 229°
2026-05-05 19:02 43.28484 -70.90034 37742 ft 395 kts 229°
2026-05-05 19:02 43.24778 -70.95604 37741 ft 395 kts 229°
2026-05-05 19:03 43.21077 -71.01151 37737 ft 394 kts 229°
2026-05-05 19:03 43.17378 -71.06686 37748 ft 394 kts 229°
2026-05-05 19:04 43.13703 -71.12174 37767 ft 394 kts 229°
2026-05-05 19:04 43.09992 -71.17698 37762 ft 394 kts 229°
2026-05-05 19:05 43.06306 -71.23244 37751 ft 394 kts 231°
2026-05-05 19:05 43.02847 -71.29042 37762 ft 393 kts 232°
2026-05-05 19:06 42.99407 -71.34845 37734 ft 394 kts 232°
2026-05-05 19:06 42.95949 -71.40655 37739 ft 394 kts 232°
2026-05-05 19:07 42.92476 -71.46435 37750 ft 394 kts 232°
2026-05-05 19:07 42.89021 -71.52243 37745 ft 394 kts 232°
2026-05-05 19:08 42.85586 -71.57989 37745 ft 394 kts 232°
2026-05-05 19:08 42.82114 -71.63759 37759 ft 394 kts 232°
2026-05-05 19:09 42.78635 -71.69536 37760 ft 395 kts 232°
2026-05-05 19:09 42.75158 -71.75327 37766 ft 395 kts 232°
2026-05-05 19:10 42.71664 -71.81115 37788 ft 396 kts 232°
2026-05-05 19:10 42.68173 -71.86897 37780 ft 396 kts 232°
2026-05-05 19:11 42.64673 -71.92674 37783 ft 396 kts 232°
2026-05-05 19:11 42.61160 -71.98441 37786 ft 396 kts 232°
2026-05-05 19:12 42.57661 -72.04228 37782 ft 396 kts 232°
2026-05-05 19:12 42.54155 -72.10002 37781 ft 397 kts 232°
2026-05-05 19:13 42.50657 -72.15727 37782 ft 397 kts 232°
2026-05-05 19:13 42.47130 -72.21479 37777 ft 398 kts 232°
2026-05-05 19:14 42.43590 -72.27248 37780 ft 398 kts 232°
2026-05-05 19:14 42.40048 -72.33010 37785 ft 398 kts 232°
2026-05-05 19:15 42.36490 -72.38766 37763 ft 399 kts 232°
2026-05-05 19:15 42.32942 -72.44529 37758 ft 399 kts 232°
2026-05-05 19:16 42.29397 -72.50290 37747 ft 399 kts 232°
2026-05-05 19:16 42.25866 -72.56022 37748 ft 400 kts 232°
2026-05-05 19:17 42.22297 -72.61781 37748 ft 400 kts 232°
2026-05-05 19:17 42.18716 -72.67527 37781 ft 400 kts 232°
2026-05-05 19:18 42.15173 -72.73325 37781 ft 400 kts 233°
2026-05-05 19:18 42.11731 -72.79197 37782 ft 400 kts 234°
2026-05-05 19:19 42.08298 -72.85088 37785 ft 399 kts 234°
2026-05-05 19:19 42.04864 -72.90954 37781 ft 399 kts 234°
2026-05-05 19:20 42.01428 -72.96807 37795 ft 399 kts 234°
2026-05-05 19:20 41.97979 -73.02653 37799 ft 399 kts 234°
2026-05-05 19:21 41.94546 -73.08491 37803 ft 397 kts 234°
2026-05-05 19:21 41.91128 -73.14253 37806 ft 397 kts 234°
2026-05-05 19:22 41.87681 -73.20056 37817 ft 398 kts 234°
2026-05-05 19:22 41.84239 -73.25864 37815 ft 398 kts 234°
2026-05-05 19:23 41.80788 -73.31665 37811 ft 398 kts 234°
2026-05-05 19:23 41.77341 -73.37472 37814 ft 398 kts 234°
2026-05-05 19:24 41.73886 -73.43271 37817 ft 398 kts 234°
2026-05-05 19:24 41.70432 -73.49066 37805 ft 398 kts 234°
2026-05-05 19:25 41.66964 -73.54853 37798 ft 399 kts 234°
2026-05-05 19:25 41.63485 -73.60641 37790 ft 400 kts 234°
2026-05-05 19:26 41.60037 -73.66394 37781 ft 400 kts 234°
2026-05-05 19:26 41.56562 -73.72220 37781 ft 401 kts 234°
2026-05-05 19:27 41.53054 -73.78024 37779 ft 402 kts 234°
2026-05-05 19:27 41.49365 -73.83648 37782 ft 404 kts 229°
2026-05-05 19:28 41.45410 -73.88989 37803 ft 405 kts 229°
2026-05-05 19:28 41.41441 -73.94318 37804 ft 405 kts 229°
2026-05-05 19:29 41.37483 -73.99673 37805 ft 406 kts 229°
2026-05-05 19:29 41.33488 -74.05009 37809 ft 407 kts 229°
2026-05-05 19:30 41.29497 -74.10350 37815 ft 407 kts 229°
2026-05-05 19:30 41.25538 -74.15657 37818 ft 407 kts 229°
2026-05-05 19:31 41.21532 -74.20992 37824 ft 408 kts 228°
2026-05-05 19:31 41.17920 -74.26736 37837 ft 403 kts 240°
2026-05-05 19:32 41.15004 -74.33090 37835 ft 403 kts 241°
2026-05-05 19:32 41.12094 -74.39451 37824 ft 403 kts 241°
2026-05-05 19:33 41.09170 -74.45789 37832 ft 403 kts 241°
2026-05-05 19:33 41.06733 -74.51058 37838 ft 403 kts 241°
2026-05-05 19:34 41.03791 -74.57385 37833 ft 403 kts 241°
2026-05-05 19:35 40.99395 -74.66864 37832 ft 402 kts 241°
2026-05-05 19:35 40.96457 -74.73171 37829 ft 402 kts 241°
2026-05-05 19:36 40.93519 -74.79482 37831 ft 402 kts 241°
2026-05-05 19:36 40.90570 -74.85771 37833 ft 402 kts 241°
2026-05-05 19:37 40.87633 -74.92049 37831 ft 402 kts 241°
2026-05-05 19:37 40.84671 -74.98325 37838 ft 402 kts 241°
2026-05-05 19:38 40.81735 -75.04553 37839 ft 403 kts 241°
2026-05-05 19:38 40.78762 -75.10831 37841 ft 403 kts 241°
2026-05-05 19:39 40.75797 -75.17109 37839 ft 404 kts 241°
2026-05-05 19:39 40.72821 -75.23392 37834 ft 404 kts 241°
2026-05-05 19:40 40.69853 -75.29645 37839 ft 401 kts 241°
2026-05-05 19:40 40.66904 -75.35855 37831 ft 399 kts 241°
2026-05-05 19:40 40.65457 -75.38909 37815 ft 388 kts 243°
2026-05-05 19:41 40.64478 -75.42138 37812 ft 379 kts 261°
2026-05-05 19:41 40.64310 -75.45524 37819 ft 376 kts 275°
2026-05-05 19:41 40.64837 -75.48934 37829 ft 377 kts 288°
2026-05-05 19:41 40.65966 -75.52015 37851 ft 382 kts 300°
2026-05-05 19:42 40.67654 -75.54746 37848 ft 389 kts 314°
2026-05-05 19:42 40.69874 -75.56823 37836 ft 395 kts 330°
2026-05-05 19:42 40.72512 -75.57909 37839 ft 404 kts 346°
2026-05-05 19:42 40.75358 -75.58030 37855 ft 416 kts 358°
2026-05-05 19:43 40.78235 -75.57305 37838 ft 429 kts 14°
2026-05-05 19:43 40.80900 -75.55462 37847 ft 441 kts 32°
2026-05-05 19:43 40.83106 -75.52599 37837 ft 451 kts 50°
2026-05-05 19:44 40.86284 -75.45368 37853 ft 456 kts 57°
2026-05-05 19:44 40.89480 -75.38135 37861 ft 456 kts 59°
2026-05-05 19:44 40.90580 -75.34220 37842 ft 457 kts 77°
2026-05-05 19:45 40.90804 -75.30040 37827 ft 458 kts 95°
2026-05-05 19:45 40.90159 -75.25943 37554 ft 455 kts 112°
2026-05-05 19:45 40.88690 -75.22285 37182 ft 449 kts 130°
2026-05-05 19:45 40.86520 -75.19407 36956 ft 441 kts 149°
2026-05-05 19:46 40.83837 -75.17551 36998 ft 433 kts 167°
2026-05-05 19:46 40.80965 -75.16853 37099 ft 421 kts 185°
2026-05-05 19:46 40.78082 -75.17337 37232 ft 407 kts 203°
2026-05-05 19:46 40.75610 -75.18892 37362 ft 394 kts 221°
2026-05-05 19:47 40.73627 -75.21307 37504 ft 387 kts 233°
2026-05-05 19:47 40.72043 -75.24156 37648 ft 384 kts 243°
2026-05-05 19:47 40.70731 -75.27219 37797 ft 384 kts 244°
2026-05-05 19:48 40.68032 -75.33348 37869 ft 388 kts 242°
2026-05-05 19:48 40.65236 -75.39426 37829 ft 387 kts 246°
2026-05-05 19:48 40.64419 -75.42738 37831 ft 378 kts 264°
2026-05-05 19:49 40.64383 -75.46165 37840 ft 376 kts 277°
2026-05-05 19:49 40.64971 -75.49537 37847 ft 380 kts 289°
2026-05-05 19:49 40.66180 -75.52641 37843 ft 384 kts 303°
2026-05-05 19:49 40.67988 -75.55241 37832 ft 388 kts 318°
2026-05-05 19:50 40.70335 -75.57027 37625 ft 394 kts 334°
2026-05-05 19:50 40.73017 -75.57879 37513 ft 401 kts 348°
2026-05-05 19:50 40.75826 -75.57820 37772 ft 410 kts
2026-05-05 19:50 40.78597 -75.56696 37842 ft 425 kts 21°
2026-05-05 19:51 40.81083 -75.54595 37869 ft 438 kts 35°
2026-05-05 19:51 40.83190 -75.51617 37873 ft 451 kts 51°
2026-05-05 19:51 40.84916 -75.48129 37867 ft 454 kts 55°
2026-05-05 19:52 40.88186 -75.40978 37841 ft 455 kts 56°
2026-05-05 19:52 40.90668 -75.33338 37845 ft 457 kts 81°
2026-05-05 19:52 40.90694 -75.29133 37847 ft 458 kts 99°
2026-05-05 19:53 40.89832 -75.25122 37847 ft 454 kts 117°
2026-05-05 19:53 40.88161 -75.21622 37842 ft 448 kts 135°
2026-05-05 19:53 40.85853 -75.18962 37832 ft 440 kts 153°
2026-05-05 19:53 40.83103 -75.17330 37832 ft 428 kts 171°
2026-05-05 19:54 40.80237 -75.16870 37839 ft 416 kts 188°
2026-05-05 19:54 40.77447 -75.17575 37832 ft 403 kts 206°
2026-05-05 19:54 40.75047 -75.19347 37829 ft 392 kts 224°
2026-05-05 19:54 40.73184 -75.21908 37851 ft 388 kts 236°
2026-05-05 19:55 40.71706 -75.24872 37852 ft 387 kts 244°
2026-05-05 19:55 40.69064 -75.31060 37843 ft 387 kts 243°
2026-05-05 19:56 40.66298 -75.37107 37831 ft 385 kts 242°
2026-05-05 19:56 40.64357 -75.43498 37820 ft 375 kts 266°
2026-05-05 19:56 40.64467 -75.46911 37841 ft 375 kts 280°
2026-05-05 19:57 40.65221 -75.50218 37848 ft 380 kts 292°
2026-05-05 19:57 40.66578 -75.53211 37838 ft 384 kts 306°
2026-05-05 19:57 40.68517 -75.55646 37833 ft 389 kts 322°
2026-05-05 19:57 40.70927 -75.57200 37829 ft 396 kts 337°
2026-05-05 19:58 40.73659 -75.57872 37836 ft 406 kts 352°
2026-05-05 19:58 40.76501 -75.57550 37834 ft 418 kts
2026-05-05 19:58 40.79236 -75.56136 37826 ft 431 kts 26°
2026-05-05 19:58 40.81627 -75.53650 37832 ft 444 kts 43°
2026-05-05 19:59 40.83542 -75.50406 37848 ft 453 kts 52°
2026-05-05 19:59 40.86957 -75.43385 37832 ft 455 kts 54°
2026-05-05 20:00 40.90074 -75.36126 37821 ft 455 kts 68°
2026-05-05 20:00 40.90736 -75.32040 37825 ft 457 kts 86°
2026-05-05 20:00 40.90501 -75.27860 37833 ft 457 kts 104°
2026-05-05 20:00 40.89396 -75.23969 37832 ft 452 kts 122°
2026-05-05 20:01 40.87521 -75.20687 37824 ft 445 kts 140°
2026-05-05 20:01 40.85063 -75.18306 37822 ft 435 kts 158°
2026-05-05 20:01 40.82253 -75.17016 37824 ft 424 kts 176°
2026-05-05 20:01 40.79363 -75.16906 37825 ft 411 kts 194°
2026-05-05 20:02 40.76668 -75.17952 37823 ft 399 kts 212°
2026-05-05 20:02 40.74435 -75.20015 37823 ft 388 kts 229°
2026-05-05 20:02 40.72708 -75.22726 37844 ft 386 kts 239°
2026-05-05 20:03 40.70045 -75.28805 37833 ft 385 kts 244°
2026-05-05 20:03 40.67334 -75.34844 37828 ft 381 kts 242°
2026-05-05 20:04 40.64745 -75.40934 37814 ft 380 kts 255°
2026-05-05 20:04 40.64310 -75.44322 37818 ft 373 kts 270°
2026-05-05 20:04 40.64580 -75.47707 37830 ft 374 kts 283°
2026-05-05 20:04 40.65455 -75.50946 37836 ft 379 kts 295°
2026-05-05 20:05 40.66937 -75.53834 37832 ft 384 kts 309°
2026-05-05 20:05 40.69003 -75.56063 37826 ft 389 kts 326°
2026-05-05 20:05 40.71520 -75.57458 37839 ft 398 kts 338°
2026-05-05 20:05 40.74274 -75.58123 37830 ft 410 kts 352°
2026-05-05 20:06 40.77125 -75.57705 37823 ft 420 kts 10°
2026-05-05 20:06 40.79825 -75.56116 37822 ft 434 kts 28°
2026-05-05 20:06 40.82136 -75.53466 37833 ft 448 kts 46°
2026-05-05 20:07 40.85557 -75.46476 37829 ft 455 kts 56°
2026-05-05 20:07 40.88773 -75.39356 37833 ft 454 kts 56°
2026-05-05 20:07 40.90109 -75.35577 37825 ft 455 kts 71°
2026-05-05 20:08 40.90608 -75.31451 37828 ft 457 kts 90°
2026-05-05 20:08 40.90208 -75.27300 37830 ft 456 kts 108°
2026-05-05 20:08 40.88946 -75.23486 37840 ft 452 kts 126°
2026-05-05 20:08 40.86941 -75.20343 37830 ft 446 kts 143°
2026-05-05 20:09 40.84376 -75.18126 37826 ft 437 kts 161°
2026-05-05 20:09 40.81506 -75.17026 37827 ft 423 kts 179°
2026-05-05 20:09 40.78621 -75.17113 37822 ft 410 kts 197°
2026-05-05 20:09 40.75991 -75.18336 37818 ft 396 kts 215°
2026-05-05 20:10 40.73858 -75.20544 37833 ft 387 kts 232°
2026-05-05 20:10 40.70981 -75.26467 37849 ft 385 kts 245°
2026-05-05 20:11 40.68342 -75.32611 37834 ft 386 kts 243°
2026-05-05 20:11 40.65592 -75.38579 37826 ft 381 kts 243°
2026-05-05 20:11 40.64585 -75.41757 37806 ft 374 kts 259°
2026-05-05 20:12 40.64342 -75.45138 37828 ft 371 kts 274°
2026-05-05 20:12 40.64756 -75.48505 37838 ft 376 kts 285°
2026-05-05 20:12 40.65787 -75.51674 37836 ft 379 kts 299°
2026-05-05 20:12 40.67419 -75.54411 37829 ft 384 kts 313°
2026-05-05 20:13 40.69574 -75.56508 37813 ft 389 kts 328°
2026-05-05 20:13 40.72162 -75.57656 37830 ft 400 kts 345°
2026-05-05 20:13 40.74979 -75.57948 37844 ft 412 kts 356°
2026-05-05 20:13 40.77834 -75.57319 37821 ft 425 kts 13°
2026-05-05 20:14 40.80503 -75.55552 37822 ft 435 kts 31°
2026-05-05 20:14 40.82709 -75.52765 37824 ft 446 kts 49°
2026-05-05 20:14 40.84314 -75.49228 37843 ft 453 kts 59°
2026-05-05 20:15 40.87493 -75.42029 37829 ft 454 kts 55°
2026-05-05 20:15 40.90312 -75.34583 37835 ft 457 kts 75°
2026-05-05 20:15 40.90628 -75.30419 37829 ft 457 kts 93°
2026-05-05 20:16 40.90043 -75.26304 37835 ft 455 kts 111°
2026-05-05 20:16 40.88639 -75.22651 37838 ft 452 kts 129°
2026-05-05 20:16 40.86501 -75.19655 37828 ft 446 kts 147°
2026-05-05 20:16 40.83862 -75.17640 37817 ft 433 kts 165°
2026-05-05 20:17 40.80981 -75.16765 37825 ft 419 kts 182°
2026-05-05 20:17 40.78137 -75.17077 37820 ft 406 kts 200°
2026-05-05 20:17 40.75590 -75.18501 37818 ft 393 kts 219°
2026-05-05 20:17 40.73573 -75.20872 37829 ft 386 kts 235°
2026-05-05 20:18 40.72077 -75.23791 37836 ft 384 kts 244°
2026-05-05 20:18 40.69533 -75.29976 37833 ft 384 kts 244°
2026-05-05 20:19 40.66794 -75.36033 37832 ft 385 kts 242°
2026-05-05 20:19 40.64472 -75.42218 37804 ft 373 kts 262°
2026-05-05 20:19 40.64320 -75.45598 37821 ft 370 kts 275°
2026-05-05 20:20 40.64841 -75.48920 37837 ft 373 kts 288°
2026-05-05 20:20 40.65966 -75.52020 37837 ft 378 kts 301°
2026-05-05 20:20 40.67672 -75.54676 37830 ft 384 kts 314°
2026-05-05 20:20 40.69851 -75.56635 37809 ft 389 kts 330°
2026-05-05 20:21 40.72496 -75.57677 37829 ft 400 kts 346°
2026-05-05 20:21 40.75314 -75.57873 37840 ft 412 kts 358°
2026-05-05 20:21 40.78123 -75.57153 37825 ft 424 kts 14°
2026-05-05 20:21 40.80743 -75.55299 37823 ft 434 kts 32°
2026-05-05 20:22 40.82887 -75.52437 37816 ft 446 kts 51°
2026-05-05 20:22 40.85956 -75.45195 37841 ft 454 kts 56°
2026-05-05 20:23 40.89222 -75.38066 37831 ft 455 kts 58°
2026-05-05 20:23 40.90353 -75.34171 37832 ft 457 kts 75°
2026-05-05 20:23 40.90830 -75.29985 37841 ft 464 kts 87°
2026-05-05 20:23 40.90575 -75.25713 37844 ft 469 kts 103°
2026-05-05 20:24 40.89462 -75.21667 37845 ft 470 kts 121°
2026-05-05 20:24 40.87566 -75.18184 37840 ft 464 kts 137°
2026-05-05 20:24 40.85093 -75.15525 37833 ft 456 kts 153°
2026-05-05 20:24 40.82245 -75.13822 37820 ft 446 kts 169°
2026-05-05 20:25 40.79221 -75.13108 37824 ft 437 kts 183°
2026-05-05 20:25 40.76270 -75.13352 37826 ft 427 kts 196°
2026-05-05 20:25 40.73466 -75.14477 37828 ft 417 kts 210°
2026-05-05 20:25 40.70987 -75.16378 37829 ft 409 kts 222°
2026-05-05 20:26 40.68938 -75.18918 37824 ft 402 kts 234°
2026-05-05 20:26 40.67397 -75.21936 37833 ft 396 kts 246°
2026-05-05 20:26 40.66239 -75.25222 37837 ft 395 kts 249°
2026-05-05 20:27 40.64000 -75.31831 37830 ft 395 kts 248°
2026-05-05 20:27 40.61728 -75.38401 37831 ft 395 kts 249°
2026-05-05 20:28 40.59423 -75.44979 37840 ft 395 kts 248°
2026-05-05 20:28 40.57115 -75.51516 37830 ft 392 kts 249°
2026-05-05 20:29 40.54820 -75.58020 37835 ft 392 kts 248°
2026-05-05 20:29 40.52512 -75.64527 37835 ft 393 kts 249°
2026-05-05 20:30 40.50222 -75.71020 37702 ft 388 kts 249°
2026-05-05 20:30 40.49101 -75.74193 37050 ft 388 kts 249°
2026-05-05 20:30 40.47961 -75.77411 36305 ft 389 kts 250°
2026-05-05 20:30 40.46819 -75.80624 35790 ft 385 kts 250°
2026-05-05 20:31 40.45706 -75.83742 35535 ft 374 kts 250°
2026-05-05 20:31 40.44586 -75.86798 35100 ft 371 kts 248°
2026-05-05 20:31 40.43171 -75.89655 34437 ft 380 kts 238°
2026-05-05 20:31 40.41335 -75.92217 33694 ft 389 kts 232°
2026-05-05 20:32 40.39369 -75.94681 32841 ft 393 kts 231°
2026-05-05 20:32 40.37373 -75.97166 31964 ft 397 kts 230°
2026-05-05 20:32 40.35321 -75.99748 31273 ft 420 kts 229°
2026-05-05 20:32 40.33194 -76.02430 30703 ft 426 kts 229°
2026-05-05 20:33 40.31058 -76.05133 30186 ft 429 kts 229°
2026-05-05 20:33 40.29163 -76.08122 29867 ft 427 kts 237°
2026-05-05 20:33 40.27417 -76.11279 29563 ft 428 kts 238°
2026-05-05 20:33 40.25697 -76.14473 29277 ft 430 kts 238°
2026-05-05 20:34 40.23975 -76.17648 28907 ft 428 kts 237°
2026-05-05 20:34 40.22245 -76.20793 28421 ft 424 kts 237°
2026-05-05 20:34 40.20522 -76.23901 27906 ft 421 kts 237°
2026-05-05 20:34 40.18831 -76.26956 27409 ft 418 kts 237°
2026-05-05 20:35 40.17132 -76.30018 26913 ft 415 kts 237°
2026-05-05 20:35 40.15443 -76.33057 26396 ft 412 kts 237°
2026-05-05 20:35 40.13764 -76.36083 25887 ft 409 kts 236°
2026-05-05 20:35 40.12097 -76.39078 25406 ft 406 kts 236°
2026-05-05 20:36 40.10438 -76.42055 24934 ft 403 kts 236°
2026-05-05 20:36 40.09348 -76.44009 24603 ft 402 kts 236°
2026-05-05 20:36 40.07709 -76.46943 24107 ft 399 kts 236°
2026-05-05 20:36 40.06079 -76.49858 23626 ft 396 kts 236°
2026-05-05 20:37 40.04459 -76.52758 23089 ft 394 kts 236°
2026-05-05 20:37 40.02847 -76.55633 22555 ft 390 kts 236°
2026-05-05 20:37 40.01254 -76.58476 22001 ft 387 kts 236°
2026-05-05 20:37 39.99676 -76.61291 21477 ft 383 kts 236°
2026-05-05 20:38 39.98111 -76.64077 20946 ft 379 kts 235°
2026-05-05 20:38 39.96556 -76.66835 20428 ft 375 kts 235°
2026-05-05 20:38 39.95013 -76.69567 19951 ft 373 kts 235°
2026-05-05 20:38 39.93482 -76.72269 19476 ft 370 kts 235°
2026-05-05 20:39 39.91969 -76.74958 19012 ft 367 kts 235°
2026-05-05 20:39 39.90461 -76.77627 18545 ft 364 kts 235°
2026-05-05 20:39 39.88985 -76.80231 18114 ft 361 kts 235°
2026-05-05 20:39 39.87487 -76.82892 17593 ft 357 kts 235°
2026-05-05 20:40 39.86041 -76.85456 17108 ft 355 kts 235°
2026-05-05 20:40 39.84581 -76.88046 16743 ft 353 kts 235°
2026-05-05 20:40 39.83124 -76.90612 16360 ft 351 kts 235°
2026-05-05 20:40 39.81678 -76.93157 15971 ft 349 kts 235°
2026-05-05 20:41 39.80242 -76.95683 15583 ft 347 kts 235°
2026-05-05 20:41 39.78817 -76.98196 15184 ft 345 kts 236°
2026-05-05 20:41 39.77387 -77.00674 14748 ft 341 kts 233°
2026-05-05 20:41 39.75631 -77.02747 14150 ft 343 kts 218°
2026-05-05 20:42 39.73524 -77.04227 13533 ft 344 kts 210°
2026-05-05 20:42 39.71363 -77.05536 12872 ft 341 kts 209°
2026-05-05 20:42 39.69220 -77.06840 12310 ft 339 kts 209°
2026-05-05 20:42 39.67102 -77.08138 11877 ft 336 kts 209°
2026-05-05 20:43 39.65002 -77.09432 11496 ft 331 kts 209°
2026-05-05 20:43 39.62993 -77.10676 11250 ft 318 kts 209°
2026-05-05 20:43 39.61033 -77.11891 11067 ft 305 kts 209°
2026-05-05 20:43 39.59160 -77.13050 10909 ft 292 kts 210°
2026-05-05 20:44 39.57339 -77.14178 10502 ft 289 kts 210°
2026-05-05 20:44 39.55528 -77.15300 10060 ft 288 kts 209°
2026-05-05 20:44 39.53725 -77.16413 9728 ft 283 kts 210°
2026-05-05 20:44 39.51979 -77.17492 9534 ft 272 kts 209°
2026-05-05 20:45 39.48632 -77.19557 8871 ft 264 kts 209°
2026-05-05 20:45 39.46984 -77.20570 8439 ft 264 kts 208°
2026-05-05 20:45 39.45327 -77.21591 8052 ft 262 kts 208°
2026-05-05 20:46 39.43686 -77.22603 7673 ft 260 kts 208°
2026-05-05 20:46 39.42063 -77.23603 7286 ft 258 kts 208°
2026-05-05 20:46 39.40449 -77.24598 6918 ft 257 kts 207°
2026-05-05 20:46 39.38868 -77.25573 6595 ft 254 kts 207°
2026-05-05 20:47 39.37252 -77.26576 6231 ft 252 kts 207°
2026-05-05 20:47 39.35676 -77.27545 5883 ft 249 kts 207°
2026-05-05 20:47 39.34131 -77.28497 5551 ft 250 kts 207°
2026-05-05 20:47 39.32562 -77.29465 5257 ft 250 kts 207°
2026-05-05 20:48 39.31005 -77.30425 4967 ft 248 kts 207°
2026-05-05 20:48 39.29443 -77.31389 4621 ft 246 kts 206°
2026-05-05 20:48 39.27903 -77.32334 4282 ft 245 kts 207°
2026-05-05 20:48 39.26360 -77.33276 3938 ft 244 kts 206°
2026-05-05 20:49 39.24831 -77.34214 3656 ft 243 kts 206°
2026-05-05 20:49 39.23304 -77.35150 3397 ft 243 kts 206°
2026-05-05 20:49 39.21937 -77.35988 3141 ft 241 kts 206°
2026-05-05 20:49 39.20412 -77.36916 2824 ft 242 kts 205°
2026-05-05 20:50 39.18885 -77.37851 2507 ft 243 kts 207°
2026-05-05 20:50 39.17375 -77.38781 2195 ft 241 kts 205°
2026-05-05 20:50 39.15879 -77.39693 2009 ft 234 kts 206°
2026-05-05 20:50 39.14460 -77.40611 1977 ft 221 kts 211°
2026-05-05 20:51 39.13212 -77.41661 1967 ft 208 kts 214°
2026-05-05 20:51 39.12062 -77.42680 1963 ft 194 kts 214°
2026-05-05 20:51 39.10987 -77.43633 1960 ft 179 kts 214°
2026-05-05 20:51 39.10002 -77.44493 2026 ft 164 kts 214°
2026-05-05 20:52 39.09012 -77.45202 2029 ft 163 kts 204°
2026-05-05 20:52 39.07920 -77.45591 2041 ft 159 kts 193°
2026-05-05 20:52 39.06902 -77.45723 2023 ft 135 kts 189°
2026-05-05 20:52 39.06021 -77.45770 1974 ft 126 kts 188°
2026-05-05 20:53 39.05166 -77.45805 1849 ft 124 kts 187°
2026-05-05 20:53 39.04336 -77.45822 1714 ft 123 kts 186°
2026-05-05 20:53 39.03483 -77.45837 1549 ft 123 kts 187°
2026-05-05 20:53 39.02621 -77.45851 1377 ft 123 kts 188°
2026-05-05 20:54 39.01773 -77.45862 1209 ft 124 kts 185°
2026-05-05 20:54 39.00867 -77.45875 1050 ft 132 kts 184°
2026-05-05 20:54 38.99973 -77.45888 900 ft 128 kts 181°
2026-05-05 20:54 38.99053 -77.45904 735 ft 132 kts 185°
2026-05-05 20:55 38.98147 -77.45912 527 ft 133 kts 185°
2026-05-05 20:55 38.97261 -77.45929 365 ft 124 kts 184°
2026-05-05 20:55 38.96406 -77.45943 317 ft 121 kts 185°
2026-05-05 20:55 38.95630 -77.45956 309 ft 100 kts 181°
2026-05-05 20:56 38.95133 -77.45957 306 ft 46 kts 175°
2026-05-05 20:56 38.94964 -77.45892 305 ft 17 kts 149°
2026-05-05 20:56 38.94856 -77.45809 307 ft 19 kts 149°
2026-05-05 20:56 38.94752 -77.45712 308 ft 19 kts 127°
2026-05-05 20:57 38.94735 -77.45561 306 ft 18 kts 93°
2026-05-05 20:57 38.94735 -77.45531 306 ft 2 kts 91°
2026-05-05 20:57 38.94736 -77.45499 306 ft 5 kts 88°
2026-05-05 20:57 38.94738 -77.45440 306 ft 8 kts 91°
2026-05-05 20:58 38.94738 -77.45353 306 ft 11 kts 89°
2026-05-05 20:58 38.94739 -77.45326 306 ft 2 kts 87°
2026-05-05 20:58 38.94742 -77.45295 309 ft 5 kts 85°
2026-05-05 20:58 38.94746 -77.45237 306 ft 8 kts 86°
2026-05-05 20:59 38.94743 -77.45152 306 ft 11 kts 92°
2026-05-05 20:59 38.94743 -77.45041 306 ft 14 kts 91°
2026-05-05 20:59 38.94742 -77.45016 306 ft 0 kts 94°
2026-05-05 20:59 38.94742 -77.45007 306 ft 3 kts 93°
2026-05-05 21:00 38.94746 -77.44970 307 ft 6 kts 54°
2026-05-05 21:00 38.94784 -77.44940 306 ft 7 kts 21°
2026-05-05 21:00 38.94809 -77.44930 306 ft 0 kts 16°
2026-05-05 21:01 38.94808 -77.44930 306 ft 0 kts 16°